Observation data for Lake Alan Henry on 10/14/2019      Previous  Date       Current Mesonet Observations  Soil Data  Daily Summary Page  Observations in Plain Language
KAHS 140500Z 24007KT 22/06 A2995 RMK A01 T02190059  RH  035%=      5-min Rain = 0
KAHS 140501Z 23008KT 22/06 A2995 RMK A01 T02190059  RH  035%=      5-min Rain = 0
KAHS 140502Z 22008KT 22/06 A2995 RMK A01 T02190060  RH  035%=      5-min Rain = 0
KAHS 140503Z 22008KT 22/06 A2995 RMK A01 T02200060  RH  035%=      5-min Rain = 0
KAHS 140504Z 22008KT 22/06 A2995 RMK A01 T02200060  RH  035%=      5-min Rain = 0
KAHS 140505Z 22009KT 22/06 A2995 RMK A01 T02200061  RH  036%=      5-min Rain = 0
KAHS 140506Z 21008KT 22/06 A2995 RMK A01 T02200061  RH  036%=      5-min Rain = 0
KAHS 140507Z 21008KT 22/06 A2995 RMK A01 T02210062  RH  036%=      5-min Rain = 0
KAHS 140508Z 21008KT 22/06 A2995 RMK A01 T02210063  RH  036%=      5-min Rain = 0
KAHS 140509Z 21008KT 22/06 A2995 RMK A01 T02210063  RH  036%=      5-min Rain = 0
KAHS 140510Z 21007KT 22/06 A2995 RMK A01 T02210063  RH  036%=      5-min Rain = 0
KAHS 140511Z 20008KT 22/06 A2995 RMK A01 T02210063  RH  036%=      5-min Rain = 0
KAHS 140512Z 21008KT 22/06 A2995 RMK A01 T02210062  RH  036%=      5-min Rain = 0
KAHS 140513Z 20008KT 22/06 A2995 RMK A01 T02210063  RH  036%=      5-min Rain = 0
KAHS 140514Z 20008KT 22/06 A2995 RMK A01 T02200063  RH  036%=      5-min Rain = 0
KAHS 140515Z 20008KT 22/06 A2995 RMK A01 T02200064  RH  036%=      5-min Rain = 0
KAHS 140516Z 20008KT 22/07 A2995 RMK A01 T02200065  RH  036%=      5-min Rain = 0
KAHS 140517Z 20008KT 22/07 A2995 RMK A01 T02200065  RH  037%=      5-min Rain = 0
KAHS 140518Z 20008KT 22/07 A2995 RMK A01 T02200065  RH  037%=      5-min Rain = 0
KAHS 140519Z 20008KT 22/07 A2995 RMK A01 T02210065  RH  036%=      5-min Rain = 0
KAHS 140520Z 21007KT 22/07 A2996 RMK A01 T02210066  RH  037%=      5-min Rain = 0
KAHS 140521Z 21008KT 22/07 A2996 RMK A01 T02210066  RH  037%=      5-min Rain = 0
KAHS 140522Z 22007KT 22/06 A2996 RMK A01 T02210064  RH  036%=      5-min Rain = 0
KAHS 140523Z 21007KT 22/07 A2996 RMK A01 T02210065  RH  036%=      5-min Rain = 0
KAHS 140524Z 21006KT 22/06 A2996 RMK A01 T02210064  RH  036%=      5-min Rain = 0
KAHS 140525Z 22006KT 22/06 A2996 RMK A01 T02210063  RH  036%=      5-min Rain = 0
KAHS 140526Z 22006KT 22/06 A2996 RMK A01 T02210063  RH  036%=      5-min Rain = 0
KAHS 140527Z 22007KT 22/06 A2996 RMK A01 T02210062  RH  036%=      5-min Rain = 0
KAHS 140528Z 22006KT 22/06 A2996 RMK A01 T02210062  RH  036%=      5-min Rain = 0
KAHS 140529Z 22007KT 22/06 A2996 RMK A01 T02210062  RH  036%=      5-min Rain = 0
KAHS 140530Z 23007KT 22/06 A2996 RMK A01 T02210061  RH  036%=      5-min Rain = 0
KAHS 140531Z 22007KT 22/06 A2995 RMK A01 T02210062  RH  036%=      5-min Rain = 0
KAHS 140532Z 22008KT 22/06 A2995 RMK A01 T02210061  RH  035%=      5-min Rain = 0
KAHS 140533Z 22007KT 22/06 A2995 RMK A01 T02210061  RH  035%=      5-min Rain = 0
KAHS 140534Z 22007KT 22/06 A2995 RMK A01 T02210061  RH  036%=      5-min Rain = 0
KAHS 140535Z 22006KT 22/06 A2995 RMK A01 T02200061  RH  036%=      5-min Rain = 0
KAHS 140536Z 22007KT 22/06 A2995 RMK A01 T02200061  RH  036%=      5-min Rain = 0
KAHS 140537Z 21007KT 22/06 A2995 RMK A01 T02200061  RH  036%=      5-min Rain = 0
KAHS 140538Z 21007KT 22/06 A2995 RMK A01 T02200061  RH  036%=      5-min Rain = 0
KAHS 140539Z 21007KT 22/06 A2995 RMK A01 T02200061  RH  036%=      5-min Rain = 0
KAHS 140540Z 21007KT 22/06 A2995 RMK A01 T02190061  RH  036%=      5-min Rain = 0
KAHS 140541Z 21007KT 22/06 A2995 RMK A01 T02200061  RH  036%=      5-min Rain = 0
KAHS 140542Z 21008KT 22/06 A2996 RMK A01 T02200062  RH  036%=      5-min Rain = 0
KAHS 140543Z 22008KT 22/06 A2996 RMK A01 T02190062  RH  036%=      5-min Rain = 0
KAHS 140544Z 21006KT 22/06 A2996 RMK A01 T02200063  RH  036%=      5-min Rain = 0
KAHS 140545Z 21006KT 22/06 A2996 RMK A01 T02190063  RH  036%=      5-min Rain = 0
KAHS 140546Z 22005KT 22/06 A2996 RMK A01 T02190063  RH  036%=      5-min Rain = 0
KAHS 140547Z 22005KT 22/06 A2996 RMK A01 T02180063  RH  037%=      5-min Rain = 0
KAHS 140548Z 22005KT 22/06 A2996 RMK A01 T02170063  RH  037%=      5-min Rain = 0
KAHS 140549Z 22005KT 22/06 A2995 RMK A01 T02170063  RH  037%=      5-min Rain = 0
KAHS 140550Z 22005KT 22/06 A2995 RMK A01 T02160063  RH  037%=      5-min Rain = 0
KAHS 140551Z 23005KT 22/06 A2995 RMK A01 T02150063  RH  037%=      5-min Rain = 0
KAHS 140552Z 23005KT 22/06 A2995 RMK A01 T02150062  RH  037%=      5-min Rain = 0
KAHS 140553Z 23006KT 21/06 A2995 RMK A01 T02140063  RH  037%=      5-min Rain = 0
KAHS 140554Z 23006KT 21/06 A2995 RMK A01 T02140062  RH  037%=      5-min Rain = 0
KAHS 140555Z 23007KT 21/06 A2996 RMK A01 T02130063  RH  037%=      5-min Rain = 0
KAHS 140556Z 23007KT 21/06 A2995 RMK A01 T02120062  RH  038%=      5-min Rain = 0
KAHS 140557Z 23007KT 21/06 A2995 RMK A01 T02120062  RH  038%=      5-min Rain = 0
KAHS 140558Z 23006KT 21/06 A2995 RMK A01 T02120063  RH  038%=      5-min Rain = 0
KAHS 140559Z 23007KT 21/06 A2995 RMK A01 T02110063  RH  038%=      5-min Rain = 0
KAHS 140600Z 22007KT 21/06 A2995 RMK A01 T02110064  RH  038%=      5-min Rain = 0
KAHS 140601Z 22006KT 21/06 A2995 RMK A01 T02100064  RH  039%=      5-min Rain = 0
KAHS 140602Z 22006KT 21/07 A2995 RMK A01 T02100065  RH  039%=      5-min Rain = 0
KAHS 140603Z 22006KT 21/07 A2995 RMK A01 T02090065  RH  039%=      5-min Rain = 0
KAHS 140604Z 22006KT 21/07 A2995 RMK A01 T02090065  RH  039%=      5-min Rain = 0
KAHS 140605Z 22005KT 21/07 A2995 RMK A01 T02080066  RH  040%=      5-min Rain = 0
KAHS 140606Z 23005KT 21/07 A2995 RMK A01 T02080066  RH  040%=      5-min Rain = 0
KAHS 140607Z 23005KT 21/07 A2995 RMK A01 T02070067  RH  040%=      5-min Rain = 0
KAHS 140608Z 23004KT 21/07 A2995 RMK A01 T02070067  RH  040%=      5-min Rain = 0
KAHS 140609Z 23004KT 21/07 A2995 RMK A01 T02060067  RH  040%=      5-min Rain = 0
KAHS 140610Z 23005KT 21/07 A2995 RMK A01 T02050066  RH  040%=      5-min Rain = 0
KAHS 140611Z 23004KT 21/07 A2995 RMK A01 T02050067  RH  041%=      5-min Rain = 0
KAHS 140612Z 22005KT 20/07 A2995 RMK A01 T02040066  RH  041%=      5-min Rain = 0
KAHS 140613Z 22005KT 20/07 A2995 RMK A01 T02030066  RH  041%=      5-min Rain = 0
KAHS 140614Z 22005KT 20/07 A2995 RMK A01 T02030066  RH  041%=      5-min Rain = 0
KAHS 140615Z 23005KT 20/07 A2995 RMK A01 T02030066  RH  041%=      5-min Rain = 0
KAHS 140616Z 23005KT 20/07 A2995 RMK A01 T02030066  RH  041%=      5-min Rain = 0
KAHS 140617Z 23005KT 20/07 A2995 RMK A01 T02030066  RH  041%=      5-min Rain = 0
KAHS 140618Z 24005KT 20/07 A2995 RMK A01 T02020066  RH  041%=      5-min Rain = 0
KAHS 140619Z 24005KT 20/07 A2995 RMK A01 T02020065  RH  041%=      5-min Rain = 0
KAHS 140620Z 24005KT 20/07 A2995 RMK A01 T02010065  RH  041%=      5-min Rain = 0
KAHS 140621Z 23005KT 20/07 A2995 RMK A01 T02010065  RH  041%=      5-min Rain = 0
KAHS 140622Z 23005KT 20/07 A2995 RMK A01 T02000065  RH  041%=      5-min Rain = 0
KAHS 140623Z 23005KT 20/07 A2995 RMK A01 T02000065  RH  041%=      5-min Rain = 0
KAHS 140624Z 23005KT 20/07 A2995 RMK A01 T02000065  RH  041%=      5-min Rain = 0
KAHS 140625Z 23005KT 20/07 A2995 RMK A01 T02000066  RH  042%=      5-min Rain = 0
KAHS 140626Z 23005KT 20/07 A2995 RMK A01 T02000066  RH  042%=      5-min Rain = 0
KAHS 140627Z 23005KT 20/07 A2995 RMK A01 T01990067  RH  042%=      5-min Rain = 0
KAHS 140628Z 23005KT 20/07 A2995 RMK A01 T01990067  RH  042%=      5-min Rain = 0
KAHS 140629Z 23005KT 20/07 A2995 RMK A01 T01990067  RH  042%=      5-min Rain = 0
KAHS 140630Z 23005KT 20/07 A2995 RMK A01 T01990067  RH  042%=      5-min Rain = 0
KAHS 140631Z 23005KT 20/07 A2995 RMK A01 T01980067  RH  042%=      5-min Rain = 0
KAHS 140632Z 23005KT 20/07 A2995 RMK A01 T01980067  RH  043%=      5-min Rain = 0
KAHS 140633Z 23006KT 20/07 A2995 RMK A01 T01980067  RH  043%=      5-min Rain = 0
KAHS 140634Z 23005KT 20/07 A2995 RMK A01 T01980067  RH  043%=      5-min Rain = 0
KAHS 140635Z 23005KT 20/07 A2995 RMK A01 T01970068  RH  043%=      5-min Rain = 0
KAHS 140636Z 23005KT 20/07 A2995 RMK A01 T01960068  RH  043%=      5-min Rain = 0
KAHS 140637Z 22006KT 20/07 A2995 RMK A01 T01960069  RH  043%=      5-min Rain = 0
KAHS 140638Z 22005KT 20/07 A2995 RMK A01 T01960069  RH  044%=      5-min Rain = 0
KAHS 140639Z 22005KT 20/07 A2995 RMK A01 T01950068  RH  044%=      5-min Rain = 0
KAHS 140640Z 21005KT 20/07 A2995 RMK A01 T01950068  RH  043%=      5-min Rain = 0
KAHS 140641Z 21005KT 20/07 A2995 RMK A01 T01950067  RH  043%=      5-min Rain = 0
KAHS 140642Z 21005KT 19/07 A2995 RMK A01 T01940067  RH  043%=      5-min Rain = 0
KAHS 140643Z 21005KT 19/07 A2995 RMK A01 T01940067  RH  044%=      5-min Rain = 0
KAHS 140644Z 21005KT 19/07 A2995 RMK A01 T01940068  RH  044%=      5-min Rain = 0
KAHS 140645Z 22005KT 19/07 A2995 RMK A01 T01940068  RH  044%=      5-min Rain = 0
KAHS 140646Z 21005KT 19/07 A2995 RMK A01 T01940069  RH  044%=      5-min Rain = 0
KAHS 140647Z 22006KT 19/07 A2995 RMK A01 T01940070  RH  045%=      5-min Rain = 0
KAHS 140648Z 22005KT 19/07 A2995 RMK A01 T01940071  RH  045%=      5-min Rain = 0
KAHS 140649Z 22004KT 19/07 A2995 RMK A01 T01940071  RH  045%=      5-min Rain = 0
KAHS 140650Z 22005KT 19/07 A2995 RMK A01 T01930071  RH  045%=      5-min Rain = 0
KAHS 140651Z 22005KT 19/07 A2995 RMK A01 T01930072  RH  045%=      5-min Rain = 0
KAHS 140652Z 22005KT 19/07 A2995 RMK A01 T01940072  RH  045%=      5-min Rain = 0
KAHS 140653Z 22005KT 19/07 A2995 RMK A01 T01940072  RH  045%=      5-min Rain = 0
KAHS 140654Z 21005KT 19/07 A2995 RMK A01 T01940072  RH  045%=      5-min Rain = 0
KAHS 140655Z 21005KT 19/07 A2995 RMK A01 T01930072  RH  045%=      5-min Rain = 0
KAHS 140656Z 21004KT 19/07 A2995 RMK A01 T01920073  RH  046%=      5-min Rain = 0
KAHS 140657Z 20005KT 19/07 A2995 RMK A01 T01910074  RH  047%=      5-min Rain = 0
KAHS 140658Z 20004KT 19/07 A2995 RMK A01 T01900074  RH  047%=      5-min Rain = 0
KAHS 140659Z 19004KT 19/08 A2995 RMK A01 T01890075  RH  047%=      5-min Rain = 0
KAHS 140700Z 18004KT 19/07 A2995 RMK A01 T01880074  RH  048%=      5-min Rain = 0
KAHS 140701Z 18005KT 19/07 A2995 RMK A01 T01870073  RH  047%=      5-min Rain = 0
KAHS 140702Z 18005KT 19/07 A2995 RMK A01 T01870073  RH  047%=      5-min Rain = 0
KAHS 140703Z 18005KT 19/07 A2995 RMK A01 T01870072  RH  047%=      5-min Rain = 0
KAHS 140704Z 18005KT 19/07 A2995 RMK A01 T01870072  RH  047%=      5-min Rain = 0
KAHS 140705Z 17005KT 19/07 A2995 RMK A01 T01880073  RH  047%=      5-min Rain = 0
KAHS 140706Z 17005KT 19/07 A2995 RMK A01 T01880073  RH  047%=      5-min Rain = 0
KAHS 140707Z 18006KT 19/07 A2995 RMK A01 T01880073  RH  047%=      5-min Rain = 0
KAHS 140708Z 18005KT 19/07 A2995 RMK A01 T01870073  RH  047%=      5-min Rain = 0
KAHS 140709Z 18005KT 19/07 A2995 RMK A01 T01860073  RH  048%=      5-min Rain = 0
KAHS 140710Z 18005KT 19/07 A2995 RMK A01 T01870073  RH  048%=      5-min Rain = 0
KAHS 140711Z 18006KT 19/07 A2995 RMK A01 T01860073  RH  048%=      5-min Rain = 0
KAHS 140712Z 18006KT 19/07 A2995 RMK A01 T01860072  RH  048%=      5-min Rain = 0
KAHS 140713Z 18006KT 19/07 A2995 RMK A01 T01860072  RH  047%=      5-min Rain = 0
KAHS 140714Z 18006KT 19/07 A2995 RMK A01 T01860072  RH  047%=      5-min Rain = 0
KAHS 140715Z 18006KT 19/07 A2995 RMK A01 T01860072  RH  047%=      5-min Rain = 0
KAHS 140716Z 18006KT 19/07 A2995 RMK A01 T01850071  RH  047%=      5-min Rain = 0
KAHS 140717Z 19006KT 19/07 A2995 RMK A01 T01850071  RH  047%=      5-min Rain = 0
KAHS 140718Z 19006KT 19/07 A2995 RMK A01 T01850070  RH  047%=      5-min Rain = 0
KAHS 140719Z 19006KT 19/07 A2995 RMK A01 T01860070  RH  047%=      5-min Rain = 0
KAHS 140720Z 19006KT 19/07 A2995 RMK A01 T01860070  RH  047%=      5-min Rain = 0
KAHS 140721Z 18006KT 19/07 A2995 RMK A01 T01870070  RH  046%=      5-min Rain = 0
KAHS 140722Z 19006KT 19/07 A2995 RMK A01 T01880070  RH  046%=      5-min Rain = 0
KAHS 140723Z 19006KT 19/07 A2995 RMK A01 T01890071  RH  046%=      5-min Rain = 0
KAHS 140724Z 19006KT 19/07 A2995 RMK A01 T01890072  RH  046%=      5-min Rain = 0
KAHS 140725Z 19006KT 19/07 A2995 RMK A01 T01900072  RH  046%=      5-min Rain = 0
KAHS 140726Z 19006KT 19/07 A2995 RMK A01 T01900073  RH  047%=      5-min Rain = 0
KAHS 140727Z 19006KT 19/07 A2995 RMK A01 T01900074  RH  047%=      5-min Rain = 0
KAHS 140728Z 19006KT 19/08 A2995 RMK A01 T01900075  RH  047%=      5-min Rain = 0
KAHS 140729Z 19006KT 19/08 A2995 RMK A01 T01900076  RH  047%=      5-min Rain = 0
KAHS 140730Z 19006KT 19/08 A2995 RMK A01 T01900077  RH  048%=      5-min Rain = 0
KAHS 140731Z 19006KT 19/08 A2995 RMK A01 T01900078  RH  048%=      5-min Rain = 0
KAHS 140732Z 19006KT 19/08 A2995 RMK A01 T01900079  RH  049%=      5-min Rain = 0
KAHS 140733Z 19006KT 19/08 A2995 RMK A01 T01900079  RH  049%=      5-min Rain = 0
KAHS 140734Z 20006KT 19/08 A2995 RMK A01 T01900080  RH  049%=      5-min Rain = 0
KAHS 140735Z 20006KT 19/08 A2995 RMK A01 T01900080  RH  049%=      5-min Rain = 0
KAHS 140736Z 19006KT 19/08 A2995 RMK A01 T01900079  RH  049%=      5-min Rain = 0
KAHS 140737Z 20006KT 19/08 A2995 RMK A01 T01900079  RH  048%=      5-min Rain = 0
KAHS 140738Z 20006KT 19/08 A2995 RMK A01 T01900078  RH  048%=      5-min Rain = 0
KAHS 140739Z 20005KT 19/08 A2995 RMK A01 T01910077  RH  048%=      5-min Rain = 0
KAHS 140740Z 21005KT 19/08 A2995 RMK A01 T01910077  RH  047%=      5-min Rain = 0
KAHS 140741Z 21006KT 19/08 A2995 RMK A01 T01910076  RH  047%=      5-min Rain = 0
KAHS 140742Z 21006KT 19/08 A2995 RMK A01 T01910076  RH  047%=      5-min Rain = 0
KAHS 140743Z 21006KT 19/08 A2995 RMK A01 T01910075  RH  047%=      5-min Rain = 0
KAHS 140744Z 21006KT 19/07 A2995 RMK A01 T01910074  RH  047%=      5-min Rain = 0
KAHS 140745Z 21006KT 19/07 A2995 RMK A01 T01900073  RH  046%=      5-min Rain = 0
KAHS 140746Z 21006KT 19/07 A2995 RMK A01 T01900072  RH  046%=      5-min Rain = 0
KAHS 140747Z 21006KT 19/07 A2995 RMK A01 T01900070  RH  046%=      5-min Rain = 0
KAHS 140748Z 21006KT 19/07 A2995 RMK A01 T01900069  RH  045%=      5-min Rain = 0
KAHS 140749Z 21006KT 19/07 A2995 RMK A01 T01900069  RH  045%=      5-min Rain = 0
KAHS 140750Z 21007KT 19/07 A2995 RMK A01 T01900069  RH  045%=      5-min Rain = 0
KAHS 140751Z 21006KT 19/07 A2995 RMK A01 T01900069  RH  045%=      5-min Rain = 0
KAHS 140752Z 21006KT 19/07 A2995 RMK A01 T01910069  RH  045%=      5-min Rain = 0
KAHS 140753Z 21006KT 19/07 A2995 RMK A01 T01900068  RH  045%=      5-min Rain = 0
KAHS 140754Z 21006KT 19/07 A2995 RMK A01 T01900068  RH  045%=      5-min Rain = 0
KAHS 140755Z 22006KT 19/07 A2995 RMK A01 T01900068  RH  045%=      5-min Rain = 0
KAHS 140756Z 21006KT 19/07 A2995 RMK A01 T01890068  RH  045%=      5-min Rain = 0
KAHS 140757Z 22006KT 19/07 A2995 RMK A01 T01890069  RH  045%=      5-min Rain = 0
KAHS 140758Z 22006KT 19/07 A2995 RMK A01 T01890069  RH  046%=      5-min Rain = 0
KAHS 140759Z 22007KT 19/07 A2995 RMK A01 T01890070  RH  046%=      5-min Rain = 0
KAHS 140800Z 22006KT 19/07 A2995 RMK A01 T01890071  RH  046%=      5-min Rain = 0
KAHS 140801Z 22006KT 19/07 A2995 RMK A01 T01890071  RH  046%=      5-min Rain = 0
KAHS 140802Z 22006KT 19/07 A2995 RMK A01 T01890072  RH  046%=      5-min Rain = 0
KAHS 140803Z 23006KT 19/07 A2995 RMK A01 T01890073  RH  047%=      5-min Rain = 0
KAHS 140804Z 23006KT 19/07 A2995 RMK A01 T01890073  RH  047%=      5-min Rain = 0
KAHS 140805Z 23005KT 19/07 A2995 RMK A01 T01890074  RH  047%=      5-min Rain = 0
KAHS 140806Z 22006KT 19/07 A2995 RMK A01 T01890074  RH  047%=      5-min Rain = 0
KAHS 140807Z 23005KT 19/08 A2995 RMK A01 T01890075  RH  047%=      5-min Rain = 0
KAHS 140808Z 23005KT 19/08 A2995 RMK A01 T01890075  RH  047%=      5-min Rain = 0
KAHS 140809Z 23005KT 19/08 A2995 RMK A01 T01880075  RH  048%=      5-min Rain = 0
KAHS 140810Z 23005KT 19/08 A2995 RMK A01 T01880075  RH  048%=      5-min Rain = 0
KAHS 140811Z 23005KT 19/08 A2995 RMK A01 T01880076  RH  048%=      5-min Rain = 0
KAHS 140812Z 22005KT 19/08 A2994 RMK A01 T01880076  RH  048%=      5-min Rain = 0
KAHS 140813Z 23005KT 19/08 A2994 RMK A01 T01870077  RH  048%=      5-min Rain = 0
KAHS 140814Z 23005KT 19/08 A2994 RMK A01 T01870077  RH  049%=      5-min Rain = 0
KAHS 140815Z 23005KT 19/08 A2994 RMK A01 T01870077  RH  049%=      5-min Rain = 0
KAHS 140816Z 23005KT 19/08 A2994 RMK A01 T01870077  RH  049%=      5-min Rain = 0
KAHS 140817Z 23005KT 19/08 A2994 RMK A01 T01870077  RH  049%=      5-min Rain = 0
KAHS 140818Z 23005KT 19/08 A2994 RMK A01 T01870077  RH  049%=      5-min Rain = 0
KAHS 140819Z 23005KT 19/08 A2994 RMK A01 T01870077  RH  049%=      5-min Rain = 0
KAHS 140820Z 23005KT 19/08 A2994 RMK A01 T01870077  RH  049%=      5-min Rain = 0
KAHS 140821Z 23005KT 19/08 A2994 RMK A01 T01870076  RH  048%=      5-min Rain = 0
KAHS 140822Z 23005KT 19/08 A2994 RMK A01 T01870076  RH  048%=      5-min Rain = 0
KAHS 140823Z 23005KT 19/08 A2994 RMK A01 T01870076  RH  048%=      5-min Rain = 0
KAHS 140824Z 23005KT 19/08 A2994 RMK A01 T01880076  RH  048%=      5-min Rain = 0
KAHS 140825Z 23005KT 19/08 A2994 RMK A01 T01880076  RH  048%=      5-min Rain = 0
KAHS 140826Z 23005KT 19/08 A2994 RMK A01 T01880076  RH  048%=      5-min Rain = 0
KAHS 140827Z 22005KT 19/08 A2994 RMK A01 T01880076  RH  048%=      5-min Rain = 0
KAHS 140828Z 22005KT 19/08 A2994 RMK A01 T01870076  RH  048%=      5-min Rain = 0
KAHS 140829Z 22005KT 19/08 A2994 RMK A01 T01870076  RH  048%=      5-min Rain = 0
KAHS 140830Z 22005KT 19/08 A2994 RMK A01 T01870076  RH  048%=      5-min Rain = 0
KAHS 140831Z 22005KT 19/08 A2994 RMK A01 T01860076  RH  049%=      5-min Rain = 0
KAHS 140832Z 22005KT 19/08 A2994 RMK A01 T01860076  RH  049%=      5-min Rain = 0
KAHS 140833Z 22005KT 19/08 A2994 RMK A01 T01870077  RH  049%=      5-min Rain = 0
KAHS 140834Z 22005KT 19/08 A2994 RMK A01 T01860077  RH  049%=      5-min Rain = 0
KAHS 140835Z 21005KT 19/08 A2994 RMK A01 T01870078  RH  049%=      5-min Rain = 0
KAHS 140836Z 21005KT 19/08 A2994 RMK A01 T01860078  RH  049%=      5-min Rain = 0
KAHS 140837Z 21005KT 19/08 A2994 RMK A01 T01860078  RH  049%=      5-min Rain = 0
KAHS 140838Z 21005KT 19/08 A2994 RMK A01 T01860078  RH  049%=      5-min Rain = 0
KAHS 140839Z 22005KT 19/08 A2994 RMK A01 T01870078  RH  049%=      5-min Rain = 0
KAHS 140840Z 22005KT 19/08 A2994 RMK A01 T01860078  RH  049%=      5-min Rain = 0
KAHS 140841Z 22005KT 19/08 A2994 RMK A01 T01870078  RH  049%=      5-min Rain = 0
KAHS 140842Z 22005KT 19/08 A2993 RMK A01 T01860078  RH  049%=      5-min Rain = 0
KAHS 140843Z 22005KT 19/08 A2993 RMK A01 T01860078  RH  049%=      5-min Rain = 0
KAHS 140844Z 22005KT 19/08 A2993 RMK A01 T01860078  RH  049%=      5-min Rain = 0
KAHS 140845Z 22005KT 19/08 A2993 RMK A01 T01860078  RH  049%=      5-min Rain = 0
KAHS 140846Z 22005KT 19/08 A2993 RMK A01 T01860078  RH  049%=      5-min Rain = 0
KAHS 140847Z 22005KT 19/08 A2993 RMK A01 T01860078  RH  049%=      5-min Rain = 0
KAHS 140848Z 22005KT 19/08 A2993 RMK A01 T01860078  RH  049%=      5-min Rain = 0
KAHS 140849Z 22006KT 19/08 A2993 RMK A01 T01860078  RH  049%=      5-min Rain = 0
KAHS 140850Z 22006KT 19/08 A2993 RMK A01 T01860078  RH  049%=      5-min Rain = 0
KAHS 140851Z 22006KT 19/08 A2993 RMK A01 T01860078  RH  049%=      5-min Rain = 0
KAHS 140852Z 22005KT 19/08 A2993 RMK A01 T01860078  RH  049%=      5-min Rain = 0
KAHS 140853Z 22006KT 19/08 A2993 RMK A01 T01870078  RH  049%=      5-min Rain = 0
KAHS 140854Z 23006KT 19/08 A2993 RMK A01 T01870078  RH  049%=      5-min Rain = 0
KAHS 140855Z 22006KT 19/08 A2993 RMK A01 T01870077  RH  049%=      5-min Rain = 0
KAHS 140856Z 22006KT 19/08 A2993 RMK A01 T01870077  RH  049%=      5-min Rain = 0
KAHS 140857Z 22006KT 19/08 A2993 RMK A01 T01870077  RH  049%=      5-min Rain = 0
KAHS 140858Z 22006KT 19/08 A2993 RMK A01 T01870077  RH  049%=      5-min Rain = 0
KAHS 140859Z 22006KT 19/08 A2993 RMK A01 T01870076  RH  049%=      5-min Rain = 0
KAHS 140900Z 22005KT 19/08 A2993 RMK A01 T01870076  RH  049%=      5-min Rain = 0
KAHS 140901Z 22005KT 19/08 A2993 RMK A01 T01870076  RH  049%=      5-min Rain = 0
KAHS 140902Z 22005KT 19/08 A2993 RMK A01 T01860076  RH  048%=      5-min Rain = 0
KAHS 140903Z 22005KT 19/08 A2993 RMK A01 T01870076  RH  048%=      5-min Rain = 0
KAHS 140904Z 22005KT 19/08 A2993 RMK A01 T01870075  RH  048%=      5-min Rain = 0
KAHS 140905Z 22006KT 19/08 A2993 RMK A01 T01870075  RH  048%=      5-min Rain = 0
KAHS 140906Z 22006KT 19/08 A2993 RMK A01 T01870075  RH  048%=      5-min Rain = 0
KAHS 140907Z 22006KT 19/08 A2993 RMK A01 T01870075  RH  048%=      5-min Rain = 0
KAHS 140908Z 22006KT 19/08 A2993 RMK A01 T01860075  RH  048%=      5-min Rain = 0
KAHS 140909Z 22006KT 19/08 A2993 RMK A01 T01860075  RH  048%=      5-min Rain = 0
KAHS 140910Z 22006KT 19/08 A2993 RMK A01 T01860075  RH  048%=      5-min Rain = 0
KAHS 140911Z 22006KT 19/08 A2993 RMK A01 T01860075  RH  048%=      5-min Rain = 0
KAHS 140912Z 22006KT 19/08 A2993 RMK A01 T01860075  RH  048%=      5-min Rain = 0
KAHS 140913Z 22005KT 19/08 A2993 RMK A01 T01860075  RH  049%=      5-min Rain = 0
KAHS 140914Z 21005KT 19/08 A2993 RMK A01 T01860075  RH  049%=      5-min Rain = 0
KAHS 140915Z 21006KT 19/08 A2993 RMK A01 T01860076  RH  049%=      5-min Rain = 0
KAHS 140916Z 21006KT 19/08 A2993 RMK A01 T01860076  RH  049%=      5-min Rain = 0
KAHS 140917Z 21006KT 19/08 A2993 RMK A01 T01860076  RH  049%=      5-min Rain = 0
KAHS 140918Z 21006KT 19/08 A2993 RMK A01 T01870076  RH  049%=      5-min Rain = 0
KAHS 140919Z 21006KT 19/08 A2993 RMK A01 T01870076  RH  048%=      5-min Rain = 0
KAHS 140920Z 22006KT 19/08 A2993 RMK A01 T01870076  RH  048%=      5-min Rain = 0
KAHS 140921Z 22006KT 19/08 A2993 RMK A01 T01880076  RH  048%=      5-min Rain = 0
KAHS 140922Z 22006KT 19/08 A2993 RMK A01 T01880075  RH  048%=      5-min Rain = 0
KAHS 140923Z 22006KT 19/08 A2993 RMK A01 T01880075  RH  048%=      5-min Rain = 0
KAHS 140924Z 21005KT 19/08 A2993 RMK A01 T01890076  RH  048%=      5-min Rain = 0
KAHS 140925Z 22005KT 19/08 A2993 RMK A01 T01880075  RH  048%=      5-min Rain = 0
KAHS 140926Z 21005KT 19/08 A2993 RMK A01 T01870076  RH  048%=      5-min Rain = 0
KAHS 140927Z 21005KT 19/08 A2993 RMK A01 T01870076  RH  049%=      5-min Rain = 0
KAHS 140928Z 21005KT 19/08 A2993 RMK A01 T01860077  RH  049%=      5-min Rain = 0
KAHS 140929Z 21005KT 19/08 A2993 RMK A01 T01850077  RH  049%=      5-min Rain = 0
KAHS 140930Z 21005KT 18/08 A2993 RMK A01 T01840078  RH  050%=      5-min Rain = 0
KAHS 140931Z 21005KT 18/08 A2993 RMK A01 T01840078  RH  050%=      5-min Rain = 0
KAHS 140932Z 21005KT 18/08 A2993 RMK A01 T01830078  RH  050%=      5-min Rain = 0
KAHS 140933Z 21005KT 18/08 A2993 RMK A01 T01830078  RH  050%=      5-min Rain = 0
KAHS 140934Z 21005KT 18/08 A2993 RMK A01 T01830078  RH  050%=      5-min Rain = 0
KAHS 140935Z 21006KT 18/08 A2993 RMK A01 T01830078  RH  050%=      5-min Rain = 0
KAHS 140936Z 21006KT 18/08 A2993 RMK A01 T01830078  RH  050%=      5-min Rain = 0
KAHS 140937Z 21006KT 18/08 A2993 RMK A01 T01820078  RH  051%=      5-min Rain = 0
KAHS 140938Z 21005KT 18/08 A2993 RMK A01 T01830079  RH  051%=      5-min Rain = 0
KAHS 140939Z 21005KT 18/08 A2993 RMK A01 T01820079  RH  051%=      5-min Rain = 0
KAHS 140940Z 20005KT 18/08 A2993 RMK A01 T01820080  RH  051%=      5-min Rain = 0
KAHS 140941Z 20005KT 18/08 A2993 RMK A01 T01820081  RH  052%=      5-min Rain = 0
KAHS 140942Z 20005KT 18/08 A2993 RMK A01 T01820082  RH  052%=      5-min Rain = 0
KAHS 140943Z 20005KT 18/08 A2993 RMK A01 T01820082  RH  052%=      5-min Rain = 0
KAHS 140944Z 20005KT 18/08 A2993 RMK A01 T01820083  RH  052%=      5-min Rain = 0
KAHS 140945Z 20005KT 18/08 A2992 RMK A01 T01820083  RH  052%=      5-min Rain = 0
KAHS 140946Z 20005KT 18/08 A2992 RMK A01 T01820083  RH  052%=      5-min Rain = 0
KAHS 140947Z 21005KT 18/08 A2993 RMK A01 T01820083  RH  052%=      5-min Rain = 0
KAHS 140948Z 20005KT 18/08 A2993 RMK A01 T01820083  RH  052%=      5-min Rain = 0
KAHS 140949Z 21005KT 18/08 A2993 RMK A01 T01830083  RH  052%=      5-min Rain = 0
KAHS 140950Z 21005KT 18/08 A2993 RMK A01 T01830083  RH  052%=      5-min Rain = 0
KAHS 140951Z 21006KT 18/08 A2993 RMK A01 T01830082  RH  052%=      5-min Rain = 0
KAHS 140952Z 21006KT 18/08 A2993 RMK A01 T01830081  RH  051%=      5-min Rain = 0
KAHS 140953Z 21006KT 18/08 A2993 RMK A01 T01830081  RH  051%=      5-min Rain = 0
KAHS 140954Z 21005KT 18/08 A2993 RMK A01 T01830081  RH  051%=      5-min Rain = 0
KAHS 140955Z 21006KT 18/08 A2993 RMK A01 T01830080  RH  051%=      5-min Rain = 0
KAHS 140956Z 21006KT 18/08 A2993 RMK A01 T01830079  RH  051%=      5-min Rain = 0
KAHS 140957Z 21006KT 18/08 A2993 RMK A01 T01830079  RH  051%=      5-min Rain = 0
KAHS 140958Z 21006KT 18/08 A2993 RMK A01 T01830079  RH  051%=      5-min Rain = 0
KAHS 140959Z 21006KT 18/08 A2993 RMK A01 T01830080  RH  051%=      5-min Rain = 0
KAHS 141000Z 22006KT 18/08 A2993 RMK A01 T01830080  RH  051%=      5-min Rain = 0
KAHS 141001Z 22006KT 18/08 A2993 RMK A01 T01830081  RH  051%=      5-min Rain = 0
KAHS 141002Z 22006KT 18/08 A2993 RMK A01 T01830081  RH  051%=      5-min Rain = 0
KAHS 141003Z 22006KT 18/08 A2993 RMK A01 T01830081  RH  051%=      5-min Rain = 0
KAHS 141004Z 22006KT 18/08 A2993 RMK A01 T01830081  RH  052%=      5-min Rain = 0
KAHS 141005Z 22006KT 18/08 A2993 RMK A01 T01830082  RH  052%=      5-min Rain = 0
KAHS 141006Z 22006KT 18/08 A2993 RMK A01 T01830082  RH  052%=      5-min Rain = 0
KAHS 141007Z 22006KT 18/08 A2993 RMK A01 T01830083  RH  052%=      5-min Rain = 0
KAHS 141008Z 22006KT 18/08 A2993 RMK A01 T01830083  RH  052%=      5-min Rain = 0
KAHS 141009Z 22006KT 18/08 A2993 RMK A01 T01830083  RH  052%=      5-min Rain = 0
KAHS 141010Z 22006KT 18/08 A2993 RMK A01 T01830083  RH  052%=      5-min Rain = 0
KAHS 141011Z 22006KT 18/08 A2993 RMK A01 T01830083  RH  052%=      5-min Rain = 0
KAHS 141012Z 22006KT 18/08 A2993 RMK A01 T01830083  RH  052%=      5-min Rain = 0
KAHS 141013Z 22006KT 18/08 A2993 RMK A01 T01830083  RH  052%=      5-min Rain = 0
KAHS 141014Z 22006KT 18/08 A2993 RMK A01 T01820083  RH  052%=      5-min Rain = 0
KAHS 141015Z 22006KT 18/08 A2993 RMK A01 T01820083  RH  052%=      5-min Rain = 0
KAHS 141016Z 22006KT 18/08 A2993 RMK A01 T01820083  RH  052%=      5-min Rain = 0
KAHS 141017Z 22006KT 18/08 A2993 RMK A01 T01820083  RH  052%=      5-min Rain = 0
KAHS 141018Z 22006KT 18/08 A2993 RMK A01 T01810083  RH  052%=      5-min Rain = 0
KAHS 141019Z 22006KT 18/08 A2993 RMK A01 T01810083  RH  053%=      5-min Rain = 0
KAHS 141020Z 22006KT 18/08 A2993 RMK A01 T01810082  RH  053%=      5-min Rain = 0
KAHS 141021Z 22006KT 18/08 A2993 RMK A01 T01810083  RH  053%=      5-min Rain = 0
KAHS 141022Z 21005KT 18/08 A2993 RMK A01 T01810083  RH  053%=      5-min Rain = 0
KAHS 141023Z 21006KT 18/08 A2993 RMK A01 T01810083  RH  053%=      5-min Rain = 0
KAHS 141024Z 21005KT 18/08 A2993 RMK A01 T01800082  RH  053%=      5-min Rain = 0
KAHS 141025Z 21005KT 18/08 A2993 RMK A01 T01800081  RH  052%=      5-min Rain = 0
KAHS 141026Z 21005KT 18/08 A2993 RMK A01 T01800081  RH  052%=      5-min Rain = 0
KAHS 141027Z 21005KT 18/08 A2993 RMK A01 T01810080  RH  052%=      5-min Rain = 0
KAHS 141028Z 21006KT 18/08 A2993 RMK A01 T01810079  RH  052%=      5-min Rain = 0
KAHS 141029Z 21006KT 18/08 A2993 RMK A01 T01800078  RH  051%=      5-min Rain = 0
KAHS 141030Z 21006KT 18/08 A2993 RMK A01 T01810078  RH  051%=      5-min Rain = 0
KAHS 141031Z 21006KT 18/08 A2993 RMK A01 T01810078  RH  051%=      5-min Rain = 0
KAHS 141032Z 21007KT 18/08 A2993 RMK A01 T01810077  RH  051%=      5-min Rain = 0
KAHS 141033Z 21006KT 18/08 A2993 RMK A01 T01820077  RH  050%=      5-min Rain = 0
KAHS 141034Z 21006KT 18/08 A2993 RMK A01 T01820076  RH  050%=      5-min Rain = 0
KAHS 141035Z 21006KT 18/08 A2993 RMK A01 T01830076  RH  050%=      5-min Rain = 0
KAHS 141036Z 21006KT 18/08 A2993 RMK A01 T01830076  RH  050%=      5-min Rain = 0
KAHS 141037Z 21006KT 18/08 A2993 RMK A01 T01830075  RH  049%=      5-min Rain = 0
KAHS 141038Z 21006KT 18/08 A2994 RMK A01 T01840075  RH  049%=      5-min Rain = 0
KAHS 141039Z 21006KT 19/08 A2994 RMK A01 T01850075  RH  049%=      5-min Rain = 0
KAHS 141040Z 21006KT 19/08 A2993 RMK A01 T01850075  RH  048%=      5-min Rain = 0
KAHS 141041Z 21005KT 19/07 A2993 RMK A01 T01850074  RH  048%=      5-min Rain = 0
KAHS 141042Z 20005KT 19/08 A2993 RMK A01 T01850075  RH  049%=      5-min Rain = 0
KAHS 141043Z 20004KT 19/08 A2993 RMK A01 T01850075  RH  049%=      5-min Rain = 0
KAHS 141044Z 21004KT 18/08 A2993 RMK A01 T01840075  RH  049%=      5-min Rain = 0
KAHS 141045Z 20005KT 18/08 A2993 RMK A01 T01830075  RH  049%=      5-min Rain = 0
KAHS 141046Z 20005KT 18/08 A2993 RMK A01 T01830075  RH  049%=      5-min Rain = 0
KAHS 141047Z 20005KT 18/08 A2993 RMK A01 T01820076  RH  050%=      5-min Rain = 0
KAHS 141048Z 20005KT 18/08 A2993 RMK A01 T01820076  RH  050%=      5-min Rain = 0
KAHS 141049Z 20005KT 18/08 A2993 RMK A01 T01810076  RH  050%=      5-min Rain = 0
KAHS 141050Z 20005KT 18/08 A2993 RMK A01 T01810076  RH  050%=      5-min Rain = 0
KAHS 141051Z 20005KT 18/08 A2993 RMK A01 T01800076  RH  051%=      5-min Rain = 0
KAHS 141052Z 20006KT 18/08 A2993 RMK A01 T01800076  RH  051%=      5-min Rain = 0
KAHS 141053Z 20006KT 18/08 A2993 RMK A01 T01800076  RH  051%=      5-min Rain = 0
KAHS 141054Z 20006KT 18/08 A2993 RMK A01 T01810076  RH  050%=      5-min Rain = 0
KAHS 141055Z 20006KT 18/08 A2993 RMK A01 T01810076  RH  050%=      5-min Rain = 0
KAHS 141056Z 20007KT 18/08 A2993 RMK A01 T01800076  RH  050%=      5-min Rain = 0
KAHS 141057Z 19007KT 18/08 A2993 RMK A01 T01800076  RH  051%=      5-min Rain = 0
KAHS 141058Z 19007KT 18/08 A2993 RMK A01 T01800076  RH  051%=      5-min Rain = 0
KAHS 141059Z 19007KT 18/08 A2993 RMK A01 T01800077  RH  051%=      5-min Rain = 0
KAHS 141100Z 19007KT 18/08 A2993 RMK A01 T01810077  RH  051%=      5-min Rain = 0
KAHS 141101Z 20006KT 18/08 A2993 RMK A01 T01820078  RH  051%=      5-min Rain = 0
KAHS 141102Z 20006KT 18/08 A2993 RMK A01 T01820078  RH  051%=      5-min Rain = 0
KAHS 141103Z 20005KT 18/08 A2994 RMK A01 T01830078  RH  050%=      5-min Rain = 0
KAHS 141104Z 21005KT 18/08 A2994 RMK A01 T01840077  RH  050%=      5-min Rain = 0
KAHS 141105Z 20006KT 18/08 A2994 RMK A01 T01840077  RH  050%=      5-min Rain = 0
KAHS 141106Z 21007KT 18/08 A2994 RMK A01 T01840077  RH  049%=      5-min Rain = 0
KAHS 141107Z 21006KT 19/08 A2994 RMK A01 T01850076  RH  049%=      5-min Rain = 0
KAHS 141108Z 21006KT 19/08 A2994 RMK A01 T01850075  RH  049%=      5-min Rain = 0
KAHS 141109Z 20007KT 19/08 A2994 RMK A01 T01850075  RH  049%=      5-min Rain = 0
KAHS 141110Z 21006KT 19/07 A2994 RMK A01 T01850074  RH  048%=      5-min Rain = 0
KAHS 141111Z 20006KT 18/07 A2994 RMK A01 T01840074  RH  048%=      5-min Rain = 0
KAHS 141112Z 20007KT 18/07 A2994 RMK A01 T01840073  RH  048%=      5-min Rain = 0
KAHS 141113Z 20007KT 18/07 A2994 RMK A01 T01840073  RH  048%=      5-min Rain = 0
KAHS 141114Z 21007KT 19/07 A2994 RMK A01 T01850073  RH  048%=      5-min Rain = 0
KAHS 141115Z 21007KT 19/07 A2994 RMK A01 T01850072  RH  048%=      5-min Rain = 0
KAHS 141116Z 21008KT 19/07 A2994 RMK A01 T01850072  RH  047%=      5-min Rain = 0
KAHS 141117Z 21007KT 19/07 A2995 RMK A01 T01850071  RH  047%=      5-min Rain = 0
KAHS 141118Z 21008KT 19/07 A2995 RMK A01 T01850070  RH  047%=      5-min Rain = 0
KAHS 141119Z 21008KT 19/07 A2995 RMK A01 T01850070  RH  047%=      5-min Rain = 0
KAHS 141120Z 21008KT 19/07 A2995 RMK A01 T01850070  RH  047%=      5-min Rain = 0
KAHS 141121Z 21008KT 19/07 A2995 RMK A01 T01850070  RH  047%=      5-min Rain = 0
KAHS 141122Z 21007KT 19/07 A2995 RMK A01 T01850071  RH  047%=      5-min Rain = 0
KAHS 141123Z 20007KT 18/07 A2995 RMK A01 T01840071  RH  048%=      5-min Rain = 0
KAHS 141124Z 21007KT 18/07 A2995 RMK A01 T01840071  RH  048%=      5-min Rain = 0
KAHS 141125Z 21007KT 18/07 A2995 RMK A01 T01840071  RH  048%=      5-min Rain = 0
KAHS 141126Z 21007KT 18/07 A2995 RMK A01 T01840071  RH  048%=      5-min Rain = 0
KAHS 141127Z 20006KT 18/07 A2995 RMK A01 T01830071  RH  048%=      5-min Rain = 0
KAHS 141128Z 21006KT 18/07 A2995 RMK A01 T01830071  RH  048%=      5-min Rain = 0
KAHS 141129Z 21006KT 18/07 A2995 RMK A01 T01830071  RH  048%=      5-min Rain = 0
KAHS 141130Z 21006KT 18/07 A2995 RMK A01 T01830071  RH  048%=      5-min Rain = 0
KAHS 141131Z 22006KT 18/07 A2995 RMK A01 T01830072  RH  048%=      5-min Rain = 0
KAHS 141132Z 22006KT 18/07 A2995 RMK A01 T01830072  RH  048%=      5-min Rain = 0
KAHS 141133Z 22005KT 18/07 A2995 RMK A01 T01830072  RH  048%=      5-min Rain = 0
KAHS 141134Z 21005KT 18/07 A2995 RMK A01 T01820071  RH  048%=      5-min Rain = 0
KAHS 141135Z 21004KT 18/07 A2995 RMK A01 T01820071  RH  048%=      5-min Rain = 0
KAHS 141136Z 20005KT 18/07 A2995 RMK A01 T01810071  RH  049%=      5-min Rain = 0
KAHS 141137Z 20005KT 18/07 A2995 RMK A01 T01810071  RH  048%=      5-min Rain = 0
KAHS 141138Z 20005KT 18/07 A2995 RMK A01 T01810071  RH  048%=      5-min Rain = 0
KAHS 141139Z 20004KT 18/07 A2995 RMK A01 T01810071  RH  048%=      5-min Rain = 0
KAHS 141140Z 20004KT 18/07 A2995 RMK A01 T01810071  RH  049%=      5-min Rain = 0
KAHS 141141Z 20004KT 18/07 A2995 RMK A01 T01810071  RH  049%=      5-min Rain = 0
KAHS 141142Z 19005KT 18/07 A2995 RMK A01 T01800070  RH  049%=      5-min Rain = 0
KAHS 141143Z 20005KT 18/07 A2995 RMK A01 T01800070  RH  049%=      5-min Rain = 0
KAHS 141144Z 20005KT 18/07 A2995 RMK A01 T01800070  RH  049%=      5-min Rain = 0
KAHS 141145Z 20005KT 18/07 A2995 RMK A01 T01800070  RH  049%=      5-min Rain = 0
KAHS 141146Z 20005KT 18/07 A2995 RMK A01 T01800070  RH  049%=      5-min Rain = 0
KAHS 141147Z 20006KT 18/07 A2995 RMK A01 T01790070  RH  049%=      5-min Rain = 0
KAHS 141148Z 20005KT 18/07 A2995 RMK A01 T01790070  RH  049%=      5-min Rain = 0
KAHS 141149Z 19005KT 18/07 A2995 RMK A01 T01790070  RH  049%=      5-min Rain = 0
KAHS 141150Z 20005KT 18/07 A2995 RMK A01 T01790071  RH  049%=      5-min Rain = 0
KAHS 141151Z 20006KT 18/07 A2995 RMK A01 T01790070  RH  049%=      5-min Rain = 0
KAHS 141152Z 20005KT 18/07 A2995 RMK A01 T01790071  RH  049%=      5-min Rain = 0
KAHS 141153Z 20005KT 18/07 A2995 RMK A01 T01790071  RH  049%=      5-min Rain = 0
KAHS 141154Z 20006KT 18/07 A2995 RMK A01 T01790071  RH  049%=      5-min Rain = 0
KAHS 141155Z 20005KT 18/07 A2995 RMK A01 T01790072  RH  050%=      5-min Rain = 0
KAHS 141156Z 20006KT 18/07 A2995 RMK A01 T01790072  RH  050%=      5-min Rain = 0
KAHS 141157Z 21005KT 18/07 A2995 RMK A01 T01790072  RH  050%=      5-min Rain = 0
KAHS 141158Z 21005KT 18/07 A2995 RMK A01 T01790072  RH  050%=      5-min Rain = 0
KAHS 141159Z 22005KT 18/07 A2995 RMK A01 T01790072  RH  050%=      5-min Rain = 0
KAHS 141200Z 24004KT 18/07 A2996 RMK A01 T01790072  RH  050%=      5-min Rain = 0
KAHS 141201Z 28004KT 18/07 A2996 RMK A01 T01780072  RH  050%=      5-min Rain = 0
KAHS 141202Z 30004KT 18/07 A2996 RMK A01 T01770072  RH  050%=      5-min Rain = 0
KAHS 141203Z 30005KT 18/07 A2996 RMK A01 T01760073  RH  051%=      5-min Rain = 0
KAHS 141204Z 29004KT 18/07 A2996 RMK A01 T01750073  RH  051%=      5-min Rain = 0
KAHS 141205Z 27003KT 17/07 A2996 RMK A01 T01740073  RH  051%=      5-min Rain = 0
KAHS 141206Z 22003KT 17/07 A2996 RMK A01 T01740073  RH  052%=      5-min Rain = 0
KAHS 141207Z 21003KT 17/07 A2996 RMK A01 T01730073  RH  052%=      5-min Rain = 0
KAHS 141208Z 20004KT 17/07 A2995 RMK A01 T01730074  RH  052%=      5-min Rain = 0
KAHS 141209Z 20004KT 17/07 A2995 RMK A01 T01730074  RH  052%=      5-min Rain = 0
KAHS 141210Z 20004KT 17/07 A2995 RMK A01 T01720074  RH  052%=      5-min Rain = 0
KAHS 141211Z 21004KT 17/07 A2996 RMK A01 T01720074  RH  053%=      5-min Rain = 0
KAHS 141212Z 21004KT 17/07 A2996 RMK A01 T01720074  RH  053%=      5-min Rain = 0
KAHS 141213Z 21005KT 17/08 A2996 RMK A01 T01710075  RH  053%=      5-min Rain = 0
KAHS 141214Z 21004KT 17/08 A2996 RMK A01 T01720075  RH  053%=      5-min Rain = 0
KAHS 141215Z 21004KT 17/08 A2996 RMK A01 T01720076  RH  053%=      5-min Rain = 0
KAHS 141216Z 21005KT 17/08 A2996 RMK A01 T01730076  RH  053%=      5-min Rain = 0
KAHS 141217Z 22004KT 17/08 A2996 RMK A01 T01730075  RH  053%=      5-min Rain = 0
KAHS 141218Z 22004KT 17/08 A2996 RMK A01 T01730075  RH  052%=      5-min Rain = 0
KAHS 141219Z 22004KT 17/08 A2996 RMK A01 T01740075  RH  052%=      5-min Rain = 0
KAHS 141220Z 22004KT 17/08 A2996 RMK A01 T01740075  RH  052%=      5-min Rain = 0
KAHS 141221Z 24003KT 17/08 A2996 RMK A01 T01740075  RH  052%=      5-min Rain = 0
KAHS 141222Z 28003KT 18/08 A2996 RMK A01 T01750075  RH  052%=      5-min Rain = 0
KAHS 141223Z 32006KT 17/08 A2997 RMK A01 T01730075  RH  052%=      5-min Rain = 0
KAHS 141224Z 33008KT 17/08 A2997 RMK A01 T01710076  RH  053%=      5-min Rain = 0
KAHS 141225Z 33008KT 17/08 A2997 RMK A01 T01690076  RH  054%=      5-min Rain = 0
KAHS 141226Z 33006KT 17/08 A2997 RMK A01 T01680076  RH  055%=      5-min Rain = 0
KAHS 141227Z 32004KT 17/08 A2997 RMK A01 T01670076  RH  055%=      5-min Rain = 0
KAHS 141228Z 32003KT 17/08 A2997 RMK A01 T01670076  RH  055%=      5-min Rain = 0
KAHS 141229Z 27001KT 17/08 A2996 RMK A01 T01660076  RH  055%=      5-min Rain = 0
KAHS 141230Z 23002KT 17/08 A2996 RMK A01 T01660076  RH  055%=      5-min Rain = 0
KAHS 141231Z 18002KT 17/08 A2996 RMK A01 T01660075  RH  055%=      5-min Rain = 0
KAHS 141232Z 18002KT 17/08 A2996 RMK A01 T01660076  RH  055%=      5-min Rain = 0
KAHS 141233Z 18003KT 17/08 A2996 RMK A01 T01650075  RH  055%=      5-min Rain = 0
KAHS 141234Z 17002KT 17/08 A2996 RMK A01 T01650076  RH  055%=      5-min Rain = 0
KAHS 141235Z 17002KT 17/08 A2996 RMK A01 T01650076  RH  055%=      5-min Rain = 0
KAHS 141236Z 16001KT 17/08 A2996 RMK A01 T01650076  RH  056%=      5-min Rain = 0
KAHS 141237Z 17001KT 17/08 A2996 RMK A01 T01650076  RH  056%=      5-min Rain = 0
KAHS 141238Z 18001KT 17/08 A2996 RMK A01 T01650076  RH  056%=      5-min Rain = 0
KAHS 141239Z 19001KT 17/08 A2996 RMK A01 T01650076  RH  056%=      5-min Rain = 0
KAHS 141240Z 19001KT 17/08 A2996 RMK A01 T01650076  RH  055%=      5-min Rain = 0
KAHS 141241Z 19002KT 17/08 A2996 RMK A01 T01650075  RH  055%=      5-min Rain = 0
KAHS 141242Z 19003KT 17/08 A2996 RMK A01 T01650076  RH  055%=      5-min Rain = 0
KAHS 141243Z 19003KT 17/08 A2996 RMK A01 T01660076  RH  055%=      5-min Rain = 0
KAHS 141244Z 19003KT 17/08 A2996 RMK A01 T01660076  RH  056%=      5-min Rain = 0
KAHS 141245Z 18004KT 17/08 A2996 RMK A01 T01650076  RH  056%=      5-min Rain = 0
KAHS 141246Z 18004KT 17/08 A2996 RMK A01 T01650077  RH  056%=      5-min Rain = 0
KAHS 141247Z 18004KT 17/08 A2996 RMK A01 T01650077  RH  056%=      5-min Rain = 0
KAHS 141248Z 19004KT 17/08 A2996 RMK A01 T01650077  RH  056%=      5-min Rain = 0
KAHS 141249Z 19004KT 17/08 A2996 RMK A01 T01650078  RH  056%=      5-min Rain = 0
KAHS 141250Z 20004KT 16/08 A2996 RMK A01 T01640078  RH  057%=      5-min Rain = 0
KAHS 141251Z 21004KT 16/08 A2996 RMK A01 T01640078  RH  057%=      5-min Rain = 0
KAHS 141252Z 23004KT 16/08 A2996 RMK A01 T01640078  RH  057%=      5-min Rain = 0
KAHS 141253Z 24004KT 17/08 A2996 RMK A01 T01650079  RH  057%=      5-min Rain = 0
KAHS 141254Z 23004KT 16/08 A2996 RMK A01 T01640079  RH  057%=      5-min Rain = 0
KAHS 141255Z 23004KT 16/08 A2996 RMK A01 T01640079  RH  057%=      5-min Rain = 0
KAHS 141256Z 23004KT 16/08 A2996 RMK A01 T01640079  RH  057%=      5-min Rain = 0
KAHS 141257Z 25004KT 16/08 A2996 RMK A01 T01640079  RH  057%=      5-min Rain = 0
KAHS 141258Z 28005KT 16/08 A2996 RMK A01 T01630079  RH  058%=      5-min Rain = 0
KAHS 141259Z 30007KT 16/08 A2996 RMK A01 T01610079  RH  058%=      5-min Rain = 0
KAHS 141300Z 31007KT 16/08 A2997 RMK A01 T01610080  RH  059%=      5-min Rain = 0
KAHS 141301Z 29006KT 16/08 A2997 RMK A01 T01610080  RH  059%=      5-min Rain = 0
KAHS 141302Z 28005KT 16/08 A2996 RMK A01 T01610080  RH  058%=      5-min Rain = 0
KAHS 141303Z 26004KT 16/08 A2996 RMK A01 T01620080  RH  058%=      5-min Rain = 0
KAHS 141304Z 25003KT 16/08 A2996 RMK A01 T01630081  RH  058%=      5-min Rain = 0
KAHS 141305Z 25003KT 16/08 A2996 RMK A01 T01640081  RH  058%=      5-min Rain = 0
KAHS 141306Z 24003KT 16/08 A2996 RMK A01 T01640081  RH  058%=      5-min Rain = 0
KAHS 141307Z 24003KT 17/08 A2996 RMK A01 T01650081  RH  058%=      5-min Rain = 0
KAHS 141308Z 24003KT 17/08 A2996 RMK A01 T01650081  RH  057%=      5-min Rain = 0
KAHS 141309Z 24003KT 17/08 A2996 RMK A01 T01660081  RH  057%=      5-min Rain = 0
KAHS 141310Z 24003KT 17/08 A2996 RMK A01 T01660081  RH  057%=      5-min Rain = 0
KAHS 141311Z 24003KT 17/08 A2996 RMK A01 T01660081  RH  057%=      5-min Rain = 0
KAHS 141312Z 23002KT 17/08 A2996 RMK A01 T01660082  RH  058%=      5-min Rain = 0
KAHS 141313Z 22002KT 17/08 A2996 RMK A01 T01660082  RH  058%=      5-min Rain = 0
KAHS 141314Z 21001KT 17/08 A2996 RMK A01 T01660082  RH  058%=      5-min Rain = 0
KAHS 141315Z 21000KT 17/08 A2996 RMK A01 T01650082  RH  058%=      5-min Rain = 0
KAHS 141316Z 00000KT 17/08 A2997 RMK A01 T01650083  RH  058%=      5-min Rain = 0
KAHS 141317Z 15000KT 17/08 A2996 RMK A01 T01650083  RH  058%=      5-min Rain = 0
KAHS 141318Z 15000KT 17/08 A2996 RMK A01 T01650083  RH  058%=      5-min Rain = 0
KAHS 141319Z 00000KT 16/08 A2997 RMK A01 T01640083  RH  059%=      5-min Rain = 0
KAHS 141320Z 00000KT 16/08 A2997 RMK A01 T01640083  RH  059%=      5-min Rain = 0
KAHS 141321Z 30001KT 16/08 A2997 RMK A01 T01640083  RH  059%=      5-min Rain = 0
KAHS 141322Z 30001KT 16/08 A2997 RMK A01 T01640084  RH  059%=      5-min Rain = 0
KAHS 141323Z 29001KT 16/08 A2997 RMK A01 T01640084  RH  059%=      5-min Rain = 0
KAHS 141324Z 26001KT 16/08 A2997 RMK A01 T01640083  RH  059%=      5-min Rain = 0
KAHS 141325Z 23002KT 16/08 A2997 RMK A01 T01640083  RH  058%=      5-min Rain = 0
KAHS 141326Z 23002KT 17/08 A2997 RMK A01 T01650082  RH  058%=      5-min Rain = 0
KAHS 141327Z 22003KT 17/08 A2997 RMK A01 T01650083  RH  058%=      5-min Rain = 0
KAHS 141328Z 23003KT 17/08 A2997 RMK A01 T01660083  RH  058%=      5-min Rain = 0
KAHS 141329Z 23003KT 17/08 A2997 RMK A01 T01670082  RH  057%=      5-min Rain = 0
KAHS 141330Z 24004KT 17/08 A2997 RMK A01 T01680082  RH  057%=      5-min Rain = 0
KAHS 141331Z 23004KT 17/08 A2997 RMK A01 T01690082  RH  056%=      5-min Rain = 0
KAHS 141332Z 22004KT 17/08 A2997 RMK A01 T01690082  RH  056%=      5-min Rain = 0
KAHS 141333Z 21005KT 17/08 A2997 RMK A01 T01690082  RH  056%=      5-min Rain = 0
KAHS 141334Z 21004KT 17/08 A2997 RMK A01 T01700082  RH  056%=      5-min Rain = 0
KAHS 141335Z 21004KT 17/08 A2997 RMK A01 T01690082  RH  056%=      5-min Rain = 0
KAHS 141336Z 22003KT 17/08 A2997 RMK A01 T01700082  RH  056%=      5-min Rain = 0
KAHS 141337Z 22003KT 17/08 A2997 RMK A01 T01700083  RH  057%=      5-min Rain = 0
KAHS 141338Z 23003KT 17/08 A2997 RMK A01 T01690083  RH  057%=      5-min Rain = 0
KAHS 141339Z 24003KT 17/08 A2997 RMK A01 T01700083  RH  057%=      5-min Rain = 0
KAHS 141340Z 24003KT 17/08 A2997 RMK A01 T01700084  RH  057%=      5-min Rain = 0
KAHS 141341Z 24003KT 17/08 A2997 RMK A01 T01690084  RH  057%=      5-min Rain = 0
KAHS 141342Z 23004KT 17/09 A2997 RMK A01 T01690085  RH  057%=      5-min Rain = 0
KAHS 141343Z 22004KT 17/09 A2997 RMK A01 T01690085  RH  058%=      5-min Rain = 0
KAHS 141344Z 22004KT 17/09 A2997 RMK A01 T01690085  RH  058%=      5-min Rain = 0
KAHS 141345Z 23004KT 17/09 A2997 RMK A01 T01700085  RH  058%=      5-min Rain = 0
KAHS 141346Z 23003KT 17/09 A2998 RMK A01 T01700086  RH  058%=      5-min Rain = 0
KAHS 141347Z 23005KT 17/09 A2998 RMK A01 T01710087  RH  057%=      5-min Rain = 0
KAHS 141348Z 23005KT 17/09 A2998 RMK A01 T01730087  RH  057%=      5-min Rain = 0
KAHS 141349Z 23004KT 17/09 A2998 RMK A01 T01740087  RH  057%=      5-min Rain = 0
KAHS 141350Z 23005KT 18/09 A2998 RMK A01 T01750087  RH  056%=      5-min Rain = 0
KAHS 141351Z 22006KT 18/09 A2998 RMK A01 T01760086  RH  056%=      5-min Rain = 0
KAHS 141352Z 22006KT 18/09 A2998 RMK A01 T01770086  RH  055%=      5-min Rain = 0
KAHS 141353Z 22006KT 18/09 A2998 RMK A01 T01780086  RH  055%=      5-min Rain = 0
KAHS 141354Z 22006KT 18/09 A2998 RMK A01 T01780086  RH  055%=      5-min Rain = 0
KAHS 141355Z 22006KT 18/09 A2998 RMK A01 T01790087  RH  055%=      5-min Rain = 0
KAHS 141356Z 23006KT 18/09 A2998 RMK A01 T01800087  RH  054%=      5-min Rain = 0
KAHS 141357Z 23005KT 18/09 A2998 RMK A01 T01810087  RH  054%=      5-min Rain = 0
KAHS 141358Z 23006KT 18/09 A2998 RMK A01 T01820088  RH  054%=      5-min Rain = 0
KAHS 141359Z 23007KT 18/09 A2998 RMK A01 T01830087  RH  053%=      5-min Rain = 0
KAHS 141400Z 23006KT 18/09 A2999 RMK A01 T01840087  RH  053%=      5-min Rain = 0
KAHS 141401Z 22007KT 19/09 A2998 RMK A01 T01850086  RH  052%=      5-min Rain = 0
KAHS 141402Z 22007KT 19/09 A2998 RMK A01 T01860087  RH  052%=      5-min Rain = 0
KAHS 141403Z 22008KT 19/09 A2998 RMK A01 T01870086  RH  052%=      5-min Rain = 0
KAHS 141404Z 21007KT 19/09 A2998 RMK A01 T01880087  RH  052%=      5-min Rain = 0
KAHS 141405Z 21009KT 19/09 A2998 RMK A01 T01880086  RH  051%=      5-min Rain = 0
KAHS 141406Z 21008KT 19/09 A2998 RMK A01 T01900086  RH  051%=      5-min Rain = 0
KAHS 141407Z 21007KT 19/09 A2998 RMK A01 T01900087  RH  051%=      5-min Rain = 0
KAHS 141408Z 21007KT 19/09 A2998 RMK A01 T01910086  RH  051%=      5-min Rain = 0
KAHS 141409Z 21006KT 19/09 A2998 RMK A01 T01910086  RH  051%=      5-min Rain = 0
KAHS 141410Z 22006KT 19/09 A2998 RMK A01 T01920087  RH  051%=      5-min Rain = 0
KAHS 141411Z 22006KT 19/09 A2999 RMK A01 T01920087  RH  050%=      5-min Rain = 0
KAHS 141412Z 22008KT 19/09 A2999 RMK A01 T01920087  RH  050%=      5-min Rain = 0
KAHS 141413Z 22008KT 19/09 A2999 RMK A01 T01930087  RH  050%=      5-min Rain = 0
KAHS 141414Z 22007KT 19/09 A2999 RMK A01 T01930088  RH  050%=      5-min Rain = 0
KAHS 141415Z 21007KT 19/09 A2999 RMK A01 T01940088  RH  050%=      5-min Rain = 0
KAHS 141416Z 22007KT 19/09 A2999 RMK A01 T01940089  RH  050%=      5-min Rain = 0
KAHS 141417Z 21006KT 20/09 A2999 RMK A01 T01950089  RH  050%=      5-min Rain = 0
KAHS 141418Z 22006KT 20/09 A2999 RMK A01 T01950090  RH  050%=      5-min Rain = 0
KAHS 141419Z 21007KT 20/09 A2999 RMK A01 T01960091  RH  051%=      5-min Rain = 0
KAHS 141420Z 21008KT 20/09 A2999 RMK A01 T01960090  RH  051%=      5-min Rain = 0
KAHS 141421Z 21009KT 20/09 A2999 RMK A01 T01960091  RH  051%=      5-min Rain = 0
KAHS 141422Z 22007KT 20/09 A2999 RMK A01 T01960091  RH  050%=      5-min Rain = 0
KAHS 141423Z 22007KT 20/09 A2999 RMK A01 T01970092  RH  051%=      5-min Rain = 0
KAHS 141424Z 22008KT 20/09 A2999 RMK A01 T01970092  RH  051%=      5-min Rain = 0
KAHS 141425Z 21007KT 20/09 A2999 RMK A01 T01980092  RH  050%=      5-min Rain = 0
KAHS 141426Z 22008KT 20/09 A2999 RMK A01 T01980092  RH  050%=      5-min Rain = 0
KAHS 141427Z 22007KT 20/09 A2999 RMK A01 T01980092  RH  050%=      5-min Rain = 0
KAHS 141428Z 23007KT 20/09 A2999 RMK A01 T01990093  RH  050%=      5-min Rain = 0
KAHS 141429Z 22007KT 20/09 A2999 RMK A01 T01990093  RH  050%=      5-min Rain = 0
KAHS 141430Z 22008G13KT 20/09 A2999 RMK A01 T02000094  RH  050%=      5-min Rain = 0
KAHS 141431Z 22009KT 20/09 A2999 RMK A01 T02000094  RH  050%=      5-min Rain = 0
KAHS 141432Z 22008KT 20/09 A2999 RMK A01 T02000094  RH  050%=      5-min Rain = 0
KAHS 141433Z 22009KT 20/09 A2999 RMK A01 T02010094  RH  050%=      5-min Rain = 0
KAHS 141434Z 23010KT 20/09 A2999 RMK A01 T02010094  RH  050%=      5-min Rain = 0
KAHS 141435Z 23008KT 20/09 A2999 RMK A01 T02020094  RH  050%=      5-min Rain = 0
KAHS 141436Z 23006KT 20/10 A2999 RMK A01 T02020095  RH  050%=      5-min Rain = 0
KAHS 141437Z 23008KT 20/10 A2999 RMK A01 T02020095  RH  050%=      5-min Rain = 0
KAHS 141438Z 23006KT 20/10 A2999 RMK A01 T02030096  RH  050%=      5-min Rain = 0
KAHS 141439Z 23005KT 20/10 A2999 RMK A01 T02040096  RH  050%=      5-min Rain = 0
KAHS 141440Z 23008KT 21/10 A2999 RMK A01 T02050096  RH  050%=      5-min Rain = 0
KAHS 141441Z 23010KT 20/10 A2999 RMK A01 T02040095  RH  049%=      5-min Rain = 0
KAHS 141442Z 22008KT 21/10 A2999 RMK A01 T02050096  RH  050%=      5-min Rain = 0
KAHS 141443Z 24008KT 21/10 A2999 RMK A01 T02050096  RH  050%=      5-min Rain = 0
KAHS 141444Z 23007KT 21/10 A2999 RMK A01 T02060097  RH  050%=      5-min Rain = 0
KAHS 141445Z 24008KT 21/10 A2999 RMK A01 T02070097  RH  049%=      5-min Rain = 0
KAHS 141446Z 24008KT 21/10 A2999 RMK A01 T02070097  RH  049%=      5-min Rain = 0
KAHS 141447Z 24010KT 21/10 A2999 RMK A01 T02070097  RH  049%=      5-min Rain = 0
KAHS 141448Z 24010KT 21/10 A2999 RMK A01 T02070097  RH  049%=      5-min Rain = 0
KAHS 141449Z 24009KT 21/10 A2999 RMK A01 T02070097  RH  049%=      5-min Rain = 0
KAHS 141450Z 24008KT 21/10 A2999 RMK A01 T02070098  RH  050%=      5-min Rain = 0
KAHS 141451Z 23008KT 21/10 A30 RMK A01 T02080098  RH  049%=      5-min Rain = 0
KAHS 141452Z 23010KT 21/10 A2999 RMK A01 T02080097  RH  049%=      5-min Rain = 0
KAHS 141453Z 24008KT 21/10 A2999 RMK A01 T02070098  RH  049%=      5-min Rain = 0
KAHS 141454Z 23005KT 21/10 A30 RMK A01 T02080098  RH  049%=      5-min Rain = 0
KAHS 141455Z 24008KT 21/10 A2999 RMK A01 T02080098  RH  049%=      5-min Rain = 0
KAHS 141456Z 24009KT 21/10 A2999 RMK A01 T02080097  RH  049%=      5-min Rain = 0
KAHS 141457Z 24008KT 21/10 A2999 RMK A01 T02080098  RH  049%=      5-min Rain = 0
KAHS 141458Z 24009KT 21/10 A2999 RMK A01 T02080097  RH  049%=      5-min Rain = 0
KAHS 141459Z 23008KT 21/10 A2999 RMK A01 T02080097  RH  049%=      5-min Rain = 0
KAHS 141500Z 23007KT 21/10 A2999 RMK A01 T02090099  RH  049%=      5-min Rain = 0
KAHS 141501Z 23007KT 21/10 A2999 RMK A01 T02100099  RH  049%=      5-min Rain = 0
KAHS 141502Z 23005KT 21/10 A2999 RMK A01 T02110099  RH  049%=      5-min Rain = 0
KAHS 141503Z 22009KT 21/10 A2999 RMK A01 T02110098  RH  048%=      5-min Rain = 0
KAHS 141504Z 22007KT 21/10 A2999 RMK A01 T02110098  RH  048%=      5-min Rain = 0
KAHS 141505Z 23008KT 21/10 A2999 RMK A01 T02110098  RH  049%=      5-min Rain = 0
KAHS 141506Z 23008KT 21/10 A2999 RMK A01 T02110099  RH  048%=      5-min Rain = 0
KAHS 141507Z 23007KT 21/10 A2999 RMK A01 T02120100  RH  049%=      5-min Rain = 0
KAHS 141508Z 25008KT 21/10 A2999 RMK A01 T02130100  RH  048%=      5-min Rain = 0
KAHS 141509Z 24008KT 21/10 A30 RMK A01 T02130100  RH  048%=      5-min Rain = 0
KAHS 141510Z 24006KT 21/10 A30 RMK A01 T02130099  RH  048%=      5-min Rain = 0
KAHS 141511Z 23005KT 21/10 A30 RMK A01 T02130100  RH  049%=      5-min Rain = 0
KAHS 141512Z 25006KT 21/10 A30 RMK A01 T02140101  RH  049%=      5-min Rain = 0
KAHS 141513Z 24007KT 22/10 A30 RMK A01 T02150101  RH  048%=      5-min Rain = 0
KAHS 141514Z 25006KT 22/10 A30 RMK A01 T02150101  RH  048%=      5-min Rain = 0
KAHS 141515Z 23008KT 22/10 A30 RMK A01 T02160101  RH  048%=      5-min Rain = 0
KAHS 141516Z 23007KT 22/10 A30 RMK A01 T02150100  RH  048%=      5-min Rain = 0
KAHS 141517Z 24007KT 22/10 A30 RMK A01 T02150102  RH  048%=      5-min Rain = 0
KAHS 141518Z 24008KT 22/10 A30 RMK A01 T02150102  RH  048%=      5-min Rain = 0
KAHS 141519Z 24006KT 22/10 A30 RMK A01 T02160103  RH  048%=      5-min Rain = 0
KAHS 141520Z 23005KT 22/10 A30 RMK A01 T02170104  RH  049%=      5-min Rain = 0
KAHS 141521Z 23008KT 22/10 A30 RMK A01 T02180104  RH  048%=      5-min Rain = 0
KAHS 141522Z 24007KT 22/10 A30 RMK A01 T02180104  RH  048%=      5-min Rain = 0
KAHS 141523Z 25008KT 22/10 A30 RMK A01 T02190104  RH  048%=      5-min Rain = 0
KAHS 141524Z 24009KT 22/10 A30 RMK A01 T02180103  RH  048%=      5-min Rain = 0
KAHS 141525Z 23009KT 22/10 A30 RMK A01 T02180103  RH  048%=      5-min Rain = 0
KAHS 141526Z 25008KT 22/10 A30 RMK A01 T02170102  RH  048%=      5-min Rain = 0
KAHS 141527Z 25009KT 22/10 A2999 RMK A01 T02160102  RH  048%=      5-min Rain = 0
KAHS 141528Z 24008KT 22/10 A2999 RMK A01 T02160102  RH  048%=      5-min Rain = 0
KAHS 141529Z 24010KT 22/10 A2999 RMK A01 T02160102  RH  048%=      5-min Rain = 0
KAHS 141530Z 24009KT 22/10 A2999 RMK A01 T02160102  RH  048%=      5-min Rain = 0
KAHS 141531Z 24007KT 22/10 A2999 RMK A01 T02160102  RH  048%=      5-min Rain = 0
KAHS 141532Z 23007KT 22/10 A2999 RMK A01 T02160103  RH  048%=      5-min Rain = 0
KAHS 141533Z 23008KT 22/10 A2999 RMK A01 T02170103  RH  048%=      5-min Rain = 0
KAHS 141534Z 24009KT 22/10 A2999 RMK A01 T02170103  RH  048%=      5-min Rain = 0
KAHS 141535Z 23009KT 22/10 A2999 RMK A01 T02170103  RH  048%=      5-min Rain = 0
KAHS 141536Z 23009KT 22/10 A2999 RMK A01 T02170104  RH  048%=      5-min Rain = 0
KAHS 141537Z 24008KT 22/10 A2999 RMK A01 T02170103  RH  048%=      5-min Rain = 0
KAHS 141538Z 24008KT 22/10 A2999 RMK A01 T02180104  RH  048%=      5-min Rain = 0
KAHS 141539Z 24009KT 22/10 A2999 RMK A01 T02170104  RH  048%=      5-min Rain = 0
KAHS 141540Z 24009KT 22/11 A2999 RMK A01 T02180105  RH  048%=      5-min Rain = 0
KAHS 141541Z 24008KT 22/11 A2999 RMK A01 T02180105  RH  049%=      5-min Rain = 0
KAHS 141542Z 23009KT 22/11 A2999 RMK A01 T02180105  RH  049%=      5-min Rain = 0
KAHS 141543Z 22007KT 22/11 A2999 RMK A01 T02190106  RH  049%=      5-min Rain = 0
KAHS 141544Z 23006KT 22/11 A2999 RMK A01 T02210107  RH  048%=      5-min Rain = 0
KAHS 141545Z 23006KT 22/11 A2999 RMK A01 T02220107  RH  048%=      5-min Rain = 0
KAHS 141546Z 23007KT 22/11 A2999 RMK A01 T02220106  RH  048%=      5-min Rain = 0
KAHS 141547Z 24005KT 22/11 A2999 RMK A01 T02220107  RH  048%=      5-min Rain = 0
KAHS 141548Z 24006KT 22/11 A2999 RMK A01 T02230107  RH  048%=      5-min Rain = 0
KAHS 141549Z 24006KT 22/11 A2999 RMK A01 T02230107  RH  048%=      5-min Rain = 0
KAHS 141550Z 24005KT 23/11 A2999 RMK A01 T02250108  RH  048%=      5-min Rain = 0
KAHS 141551Z 25008KT 23/11 A2999 RMK A01 T02260108  RH  047%=      5-min Rain = 0
KAHS 141552Z 24005KT 23/11 A2999 RMK A01 T02250108  RH  047%=      5-min Rain = 0
KAHS 141553Z 23008KT 23/11 A2999 RMK A01 T02260109  RH  048%=      5-min Rain = 0
KAHS 141554Z 22010KT 23/11 A2999 RMK A01 T02260109  RH  048%=      5-min Rain = 0
KAHS 141555Z 23008KT 23/11 A2999 RMK A01 T02250109  RH  048%=      5-min Rain = 0
KAHS 141556Z 22011KT 23/11 A2999 RMK A01 T02260110  RH  048%=      5-min Rain = 0
KAHS 141557Z 22010KT 23/11 A2999 RMK A01 T02260110  RH  048%=      5-min Rain = 0
KAHS 141558Z 22008KT 23/11 A2999 RMK A01 T02270111  RH  048%=      5-min Rain = 0
KAHS 141559Z 22008KT 23/11 A2999 RMK A01 T02290111  RH  048%=      5-min Rain = 0
KAHS 141600Z 22009KT 23/11 A2999 RMK A01 T02290111  RH  047%=      5-min Rain = 0
KAHS 141601Z 21010KT 23/11 A2999 RMK A01 T02290111  RH  048%=      5-min Rain = 0
KAHS 141602Z 23009KT 23/11 A2999 RMK A01 T02290111  RH  047%=      5-min Rain = 0
KAHS 141603Z 23009KT 23/11 A2999 RMK A01 T02290111  RH  047%=      5-min Rain = 0
KAHS 141604Z 23011KT 23/11 A2999 RMK A01 T02280111  RH  048%=      5-min Rain = 0
KAHS 141605Z 23011KT 23/11 A2999 RMK A01 T02280111  RH  048%=      5-min Rain = 0
KAHS 141606Z 24009KT 23/11 A2999 RMK A01 T02270111  RH  048%=      5-min Rain = 0
KAHS 141607Z 23008KT 23/11 A2999 RMK A01 T02270111  RH  048%=      5-min Rain = 0
KAHS 141608Z 22007KT 23/11 A2999 RMK A01 T02290113  RH  048%=      5-min Rain = 0
KAHS 141609Z 24008KT 23/11 A2999 RMK A01 T02310113  RH  047%=      5-min Rain = 0
KAHS 141610Z 24008KT 23/11 A2999 RMK A01 T02320113  RH  047%=      5-min Rain = 0
KAHS 141611Z 23005KT 23/11 A2999 RMK A01 T02330113  RH  047%=      5-min Rain = 0
KAHS 141612Z 23007KT 24/11 A2999 RMK A01 T02350114  RH  047%=      5-min Rain = 0
KAHS 141613Z 23008KT 24/11 A2999 RMK A01 T02360113  RH  046%=      5-min Rain = 0
KAHS 141614Z 22008KT 24/11 A2999 RMK A01 T02350113  RH  046%=      5-min Rain = 0
KAHS 141615Z 21009KT 23/11 A2998 RMK A01 T02340112  RH  046%=      5-min Rain = 0
KAHS 141616Z 24005KT 23/11 A2998 RMK A01 T02330114  RH  047%=      5-min Rain = 0
KAHS 141617Z 24006KT 24/12 A2998 RMK A01 T02360115  RH  047%=      5-min Rain = 0
KAHS 141618Z 24008KT 24/12 A2999 RMK A01 T02390115  RH  046%=      5-min Rain = 0
KAHS 141619Z 25009KT 24/12 A2999 RMK A01 T02410116  RH  045%=      5-min Rain = 0
KAHS 141620Z 24008KT 24/11 A2999 RMK A01 T02410114  RH  045%=      5-min Rain = 0
KAHS 141621Z 24006KT 24/12 A2999 RMK A01 T02420115  RH  045%=      5-min Rain = 0
KAHS 141622Z 24008KT 24/11 A2999 RMK A01 T02410114  RH  045%=      5-min Rain = 0
KAHS 141623Z 25008KT 24/11 A2999 RMK A01 T02380113  RH  045%=      5-min Rain = 0
KAHS 141624Z 25008KT 24/11 A2999 RMK A01 T02380114  RH  046%=      5-min Rain = 0
KAHS 141625Z 22008KT 24/12 A2999 RMK A01 T02390115  RH  046%=      5-min Rain = 0
KAHS 141626Z 23007KT 24/11 A2999 RMK A01 T02390114  RH  046%=      5-min Rain = 0
KAHS 141627Z 23008KT 24/11 A2999 RMK A01 T02390114  RH  046%=      5-min Rain = 0
KAHS 141628Z 23009KT 24/11 A2999 RMK A01 T02390114  RH  046%=      5-min Rain = 0
KAHS 141629Z 24009KT 24/12 A2999 RMK A01 T02400115  RH  045%=      5-min Rain = 0
KAHS 141630Z 23007KT 24/12 A2999 RMK A01 T02420116  RH  045%=      5-min Rain = 0
KAHS 141631Z 23009KT 25/12 A2999 RMK A01 T02450115  RH  044%=      5-min Rain = 0
KAHS 141632Z 24009KT 25/12 A2999 RMK A01 T02460115  RH  044%=      5-min Rain = 0
KAHS 141633Z 23009KT 25/11 A2999 RMK A01 T02450114  RH  044%=      5-min Rain = 0
KAHS 141634Z 25008KT 24/11 A2999 RMK A01 T02420113  RH  044%=      5-min Rain = 0
KAHS 141635Z 25009KT 24/12 A2999 RMK A01 T02440115  RH  044%=      5-min Rain = 0
KAHS 141636Z 26011KT 25/12 A2999 RMK A01 T02460115  RH  044%=      5-min Rain = 0
KAHS 141637Z 26010KT 24/11 A2999 RMK A01 T02440114  RH  044%=      5-min Rain = 0
KAHS 141638Z 25009KT 25/12 A2999 RMK A01 T02450115  RH  044%=      5-min Rain = 0
KAHS 141639Z 25010KT 24/11 A2999 RMK A01 T02440114  RH  044%=      5-min Rain = 0
KAHS 141640Z 25011KT 25/12 A2999 RMK A01 T02450115  RH  044%=      5-min Rain = 0
KAHS 141641Z 25012KT 25/12 A2998 RMK A01 T02460115  RH  044%=      5-min Rain = 0
KAHS 141642Z 25011KT 25/11 A2999 RMK A01 T02450114  RH  044%=      5-min Rain = 0
KAHS 141643Z 24011KT 24/11 A2998 RMK A01 T02440114  RH  044%=      5-min Rain = 0
KAHS 141644Z 25009KT 24/11 A2998 RMK A01 T02420114  RH  044%=      5-min Rain = 0
KAHS 141645Z 24010KT 24/11 A2998 RMK A01 T02430114  RH  044%=      5-min Rain = 0
KAHS 141646Z 25009KT 24/11 A2998 RMK A01 T02430114  RH  044%=      5-min Rain = 0
KAHS 141647Z 24008KT 24/11 A2998 RMK A01 T02410113  RH  044%=      5-min Rain = 0
KAHS 141648Z 23007KT 24/11 A2998 RMK A01 T02410114  RH  045%=      5-min Rain = 0
KAHS 141649Z 23008KT 24/12 A2998 RMK A01 T02420115  RH  045%=      5-min Rain = 0
KAHS 141650Z 24008KT 24/12 A2998 RMK A01 T02430115  RH  045%=      5-min Rain = 0
KAHS 141651Z 24010KT 24/12 A2998 RMK A01 T02430116  RH  045%=      5-min Rain = 0
KAHS 141652Z 21008KT 24/12 A2998 RMK A01 T02430116  RH  045%=      5-min Rain = 0
KAHS 141653Z 22008KT 24/12 A2998 RMK A01 T02440116  RH  045%=      5-min Rain = 0
KAHS 141654Z 23008KT 24/12 A2998 RMK A01 T02440116  RH  045%=      5-min Rain = 0
KAHS 141655Z 24009KT 24/12 A2998 RMK A01 T02440115  RH  045%=      5-min Rain = 0
KAHS 141656Z 22008KT 24/12 A2998 RMK A01 T02430116  RH  045%=      5-min Rain = 0
KAHS 141657Z 23006KT 24/12 A2998 RMK A01 T02440115  RH  044%=      5-min Rain = 0
KAHS 141658Z 25008KT 24/12 A2998 RMK A01 T02440115  RH  045%=      5-min Rain = 0
KAHS 141659Z 23009KT 25/12 A2998 RMK A01 T02450116  RH  044%=      5-min Rain = 0
KAHS 141700Z 24009KT 25/12 A2998 RMK A01 T02450115  RH  044%=      5-min Rain = 0
KAHS 141701Z 24010KT 24/11 A2998 RMK A01 T02440114  RH  044%=      5-min Rain = 0
KAHS 141702Z 23008KT 24/12 A2998 RMK A01 T02430115  RH  044%=      5-min Rain = 0
KAHS 141703Z 23007KT 25/12 A2998 RMK A01 T02450116  RH  045%=      5-min Rain = 0
KAHS 141704Z 23011KT 25/12 A2998 RMK A01 T02460115  RH  044%=      5-min Rain = 0
KAHS 141705Z 23009KT 24/11 A2998 RMK A01 T02440114  RH  044%=      5-min Rain = 0
KAHS 141706Z 22009KT 24/12 A2998 RMK A01 T02440115  RH  044%=      5-min Rain = 0
KAHS 141707Z 24008KT 25/12 A2998 RMK A01 T02460116  RH  044%=      5-min Rain = 0
KAHS 141708Z 23012KT 25/11 A2998 RMK A01 T02460114  RH  044%=      5-min Rain = 0
KAHS 141709Z 24011KT 25/11 A2998 RMK A01 T02450114  RH  044%=      5-min Rain = 0
KAHS 141710Z 23010KT 24/11 A2998 RMK A01 T02430114  RH  044%=      5-min Rain = 0
KAHS 141711Z 24010KT 24/11 A2998 RMK A01 T02440114  RH  044%=      5-min Rain = 0
KAHS 141712Z 24011KT 24/11 A2997 RMK A01 T02440114  RH  044%=      5-min Rain = 0
KAHS 141713Z 24011KT 24/11 A2997 RMK A01 T02430114  RH  044%=      5-min Rain = 0
KAHS 141714Z 23008KT 24/11 A2997 RMK A01 T02430114  RH  044%=      5-min Rain = 0
KAHS 141715Z 23011KT 24/11 A2997 RMK A01 T02430114  RH  044%=      5-min Rain = 0
KAHS 141716Z 23010KT 24/12 A2997 RMK A01 T02420115  RH  045%=      5-min Rain = 0
KAHS 141717Z 23008KT 24/11 A2997 RMK A01 T02420114  RH  044%=      5-min Rain = 0
KAHS 141718Z 23008KT 24/12 A2997 RMK A01 T02430115  RH  045%=      5-min Rain = 0
KAHS 141719Z 22009KT 24/11 A2997 RMK A01 T02430114  RH  044%=      5-min Rain = 0
KAHS 141720Z 22010KT 24/11 A2997 RMK A01 T02420114  RH  045%=      5-min Rain = 0
KAHS 141721Z 23009KT 24/11 A2997 RMK A01 T02410114  RH  045%=      5-min Rain = 0
KAHS 141722Z 23007KT 24/12 A2997 RMK A01 T02420115  RH  045%=      5-min Rain = 0
KAHS 141723Z 23010KT 24/12 A2997 RMK A01 T02440116  RH  045%=      5-min Rain = 0
KAHS 141724Z 23011KT 24/11 A2997 RMK A01 T02430114  RH  044%=      5-min Rain = 0
KAHS 141725Z 23010KT 24/12 A2997 RMK A01 T02420115  RH  045%=      5-min Rain = 0
KAHS 141726Z 23009KT 24/12 A2997 RMK A01 T02430115  RH  045%=      5-min Rain = 0
KAHS 141727Z 23010KT 24/12 A2997 RMK A01 T02420115  RH  045%=      5-min Rain = 0
KAHS 141728Z 23009KT 24/12 A2997 RMK A01 T02420115  RH  045%=      5-min Rain = 0
KAHS 141729Z 23010KT 24/12 A2997 RMK A01 T02420115  RH  045%=      5-min Rain = 0
KAHS 141730Z 22008KT 24/12 A2997 RMK A01 T02420115  RH  045%=      5-min Rain = 0
KAHS 141731Z 24008KT 24/12 A2997 RMK A01 T02430116  RH  045%=      5-min Rain = 0
KAHS 141732Z 23009KT 24/12 A2997 RMK A01 T02440116  RH  045%=      5-min Rain = 0
KAHS 141733Z 24010KT 25/12 A2997 RMK A01 T02460117  RH  045%=      5-min Rain = 0
KAHS 141734Z 23012KT 24/12 A2997 RMK A01 T02440116  RH  045%=      5-min Rain = 0
KAHS 141735Z 24008KT 24/12 A2997 RMK A01 T02420116  RH  045%=      5-min Rain = 0
KAHS 141736Z 24008KT 24/12 A2997 RMK A01 T02420116  RH  045%=      5-min Rain = 0
KAHS 141737Z 22008KT 24/12 A2997 RMK A01 T02430116  RH  045%=      5-min Rain = 0
KAHS 141738Z 24008KT 24/12 A2997 RMK A01 T02430116  RH  045%=      5-min Rain = 0
KAHS 141739Z 24008KT 24/12 A2997 RMK A01 T02430117  RH  045%=      5-min Rain = 0
KAHS 141740Z 24008KT 24/12 A2997 RMK A01 T02440118  RH  045%=      5-min Rain = 0
KAHS 141741Z 25009KT 25/12 A2997 RMK A01 T02460118  RH  045%=      5-min Rain = 0
KAHS 141742Z 25008KT 25/12 A2997 RMK A01 T02470119  RH  045%=      5-min Rain = 0
KAHS 141743Z 24009KT 25/12 A2997 RMK A01 T02480118  RH  044%=      5-min Rain = 0
KAHS 141744Z 23009KT 25/12 A2997 RMK A01 T02490118  RH  044%=      5-min Rain = 0
KAHS 141745Z 23010KT 25/12 A2997 RMK A01 T02480118  RH  044%=      5-min Rain = 0
KAHS 141746Z 23007KT 25/12 A2997 RMK A01 T02480119  RH  044%=      5-min Rain = 0
KAHS 141747Z 23007KT 25/12 A2997 RMK A01 T02490120  RH  044%=      5-min Rain = 0
KAHS 141748Z 24007KT 25/12 A2997 RMK A01 T02510120  RH  044%=      5-min Rain = 0
KAHS 141749Z 23008KT 25/12 A2997 RMK A01 T02500119  RH  044%=      5-min Rain = 0
KAHS 141750Z 23007KT 25/12 A2997 RMK A01 T02510120  RH  044%=      5-min Rain = 0
KAHS 141751Z 25007KT 25/12 A2997 RMK A01 T02520120  RH  044%=      5-min Rain = 0
KAHS 141752Z 22007KT 25/12 A2997 RMK A01 T02540121  RH  043%=      5-min Rain = 0
KAHS 141753Z 24007KT 25/12 A2997 RMK A01 T02540121  RH  043%=      5-min Rain = 0
KAHS 141754Z 24009KT 25/12 A2997 RMK A01 T02530120  RH  043%=      5-min Rain = 0
KAHS 141755Z 26009KT 25/12 A2997 RMK A01 T02540120  RH  043%=      5-min Rain = 0
KAHS 141756Z 26013KT 26/12 A2997 RMK A01 T02550121  RH  043%=      5-min Rain = 0
KAHS 141757Z 26012KT 26/12 A2997 RMK A01 T02550120  RH  043%=      5-min Rain = 0
KAHS 141758Z 26009KT 26/12 A2997 RMK A01 T02560121  RH  043%=      5-min Rain = 0
KAHS 141759Z 26010KT 26/12 A2997 RMK A01 T02550120  RH  043%=      5-min Rain = 0
KAHS 141800Z 24008KT 25/12 A2997 RMK A01 T02540120  RH  043%=      5-min Rain = 0
KAHS 141801Z 24006KT 26/12 A2997 RMK A01 T02550121  RH  043%=      5-min Rain = 0
KAHS 141802Z 25006KT 26/12 A2997 RMK A01 T02570122  RH  043%=      5-min Rain = 0
KAHS 141803Z 25010KT 26/12 A2996 RMK A01 T02580121  RH  042%=      5-min Rain = 0
KAHS 141804Z 26011KT 26/12 A2996 RMK A01 T02560120  RH  043%=      5-min Rain = 0
KAHS 141805Z 24010KT 25/12 A2996 RMK A01 T02540120  RH  043%=      5-min Rain = 0
KAHS 141806Z 24009KT 25/12 A2997 RMK A01 T02520120  RH  044%=      5-min Rain = 0
KAHS 141807Z 25011KT 25/12 A2996 RMK A01 T02530120  RH  044%=      5-min Rain = 0
KAHS 141808Z 24010KT 25/12 A2996 RMK A01 T02530120  RH  044%=      5-min Rain = 0
KAHS 141809Z 24009KT 25/12 A2996 RMK A01 T02530120  RH  044%=      5-min Rain = 0
KAHS 141810Z 24008KT 25/12 A2996 RMK A01 T02530121  RH  044%=      5-min Rain = 0
KAHS 141811Z 23009KT 25/12 A2996 RMK A01 T02540121  RH  044%=      5-min Rain = 0
KAHS 141812Z 23009KT 25/12 A2996 RMK A01 T02540121  RH  044%=      5-min Rain = 0
KAHS 141813Z 24007G13KT 26/12 A2996 RMK A01 T02560122  RH  043%=      5-min Rain = 0
KAHS 141814Z 24008KT 26/12 A2996 RMK A01 T02580122  RH  043%=      5-min Rain = 0
KAHS 141815Z 24010KT 26/12 A2996 RMK A01 T02580122  RH  043%=      5-min Rain = 0
KAHS 141816Z 24010KT 26/12 A2996 RMK A01 T02590121  RH  042%=      5-min Rain = 0
KAHS 141817Z 24011KT 26/12 A2996 RMK A01 T02580121  RH  043%=      5-min Rain = 0
KAHS 141818Z 24009KT 26/12 A2996 RMK A01 T02580122  RH  043%=      5-min Rain = 0
KAHS 141819Z 23010KT 26/12 A2996 RMK A01 T02590123  RH  043%=      5-min Rain = 0
KAHS 141820Z 23011KT 26/12 A2996 RMK A01 T02600123  RH  042%=      5-min Rain = 0
KAHS 141821Z 24011KT 26/12 A2996 RMK A01 T02590122  RH  042%=      5-min Rain = 0
KAHS 141822Z 23009KT 26/12 A2996 RMK A01 T02600123  RH  042%=      5-min Rain = 0
KAHS 141823Z 24011KT 26/12 A2996 RMK A01 T02610122  RH  042%=      5-min Rain = 0
KAHS 141824Z 25008KT 26/12 A2996 RMK A01 T02610122  RH  042%=      5-min Rain = 0
KAHS 141825Z 27008KT 26/12 A2995 RMK A01 T02630122  RH  041%=      5-min Rain = 0
KAHS 141826Z 26008KT 26/12 A2995 RMK A01 T02640122  RH  041%=      5-min Rain = 0
KAHS 141827Z 25008KT 27/12 A2995 RMK A01 T02650122  RH  041%=      5-min Rain = 0
KAHS 141828Z 24007KT 27/12 A2995 RMK A01 T02650122  RH  041%=      5-min Rain = 0
KAHS 141829Z 23009KT 27/12 A2995 RMK A01 T02650122  RH  041%=      5-min Rain = 0
KAHS 141830Z 23010G15KT 26/12 A2995 RMK A01 T02630122  RH  041%=      5-min Rain = 0
KAHS 141831Z 23010KT 26/12 A2995 RMK A01 T02630122  RH  042%=      5-min Rain = 0
KAHS 141832Z 22007KT 26/12 A2995 RMK A01 T02630122  RH  042%=      5-min Rain = 0
KAHS 141833Z 24008KT 26/12 A2995 RMK A01 T02640123  RH  041%=      5-min Rain = 0
KAHS 141834Z 24010KT 26/12 A2995 RMK A01 T02640122  RH  041%=      5-min Rain = 0
KAHS 141835Z 23011KT 26/12 A2995 RMK A01 T02640122  RH  041%=      5-min Rain = 0
KAHS 141836Z 22009KT 26/12 A2995 RMK A01 T02640122  RH  041%=      5-min Rain = 0
KAHS 141837Z 23010KT 26/12 A2995 RMK A01 T02640122  RH  041%=      5-min Rain = 0
KAHS 141838Z 25008KT 27/12 A2995 RMK A01 T02650123  RH  041%=      5-min Rain = 0
KAHS 141839Z 24010KT 27/12 A2995 RMK A01 T02670122  RH  040%=      5-min Rain = 0
KAHS 141840Z 23008KT 27/12 A2995 RMK A01 T02650121  RH  041%=      5-min Rain = 0
KAHS 141841Z 22010KT 26/12 A2995 RMK A01 T02640122  RH  041%=      5-min Rain = 0
KAHS 141842Z 23007KT 26/12 A2995 RMK A01 T02630122  RH  041%=      5-min Rain = 0
KAHS 141843Z 22009KT 26/12 A2995 RMK A01 T02640124  RH  042%=      5-min Rain = 0
KAHS 141844Z 23009KT 27/12 A2994 RMK A01 T02650122  RH  041%=      5-min Rain = 0
KAHS 141845Z 21008KT 27/12 A2994 RMK A01 T02650124  RH  041%=      5-min Rain = 0
KAHS 141846Z 21011KT 27/12 A2994 RMK A01 T02680124  RH  041%=      5-min Rain = 0
KAHS 141847Z 22010KT 27/12 A2994 RMK A01 T02680124  RH  041%=      5-min Rain = 0
KAHS 141848Z 20011KT 27/13 A2994 RMK A01 T02700125  RH  041%=      5-min Rain = 0
KAHS 141849Z 22011KT 27/12 A2994 RMK A01 T02690124  RH  040%=      5-min Rain = 0
KAHS 141850Z 20008KT 27/13 A2994 RMK A01 T02720126  RH  040%=      5-min Rain = 0
KAHS 141851Z 21008KT 27/12 A2994 RMK A01 T02710124  RH  040%=      5-min Rain = 0
KAHS 141852Z 22006KT 27/13 A2994 RMK A01 T02710125  RH  040%=      5-min Rain = 0
KAHS 141853Z 23008KT 27/13 A2993 RMK A01 T02720125  RH  040%=      5-min Rain = 0
KAHS 141854Z 22008KT 27/13 A2993 RMK A01 T02730125  RH  040%=      5-min Rain = 0
KAHS 141855Z 22007KT 28/13 A2993 RMK A01 T02760125  RH  039%=      5-min Rain = 0
KAHS 141856Z 24007KT 28/12 A2993 RMK A01 T02760124  RH  039%=      5-min Rain = 0
KAHS 141857Z 22008KT 28/13 A2993 RMK A01 T02760126  RH  039%=      5-min Rain = 0
KAHS 141858Z 21008KT 28/12 A2993 RMK A01 T02760123  RH  039%=      5-min Rain = 0
KAHS 141859Z 21008G13KT 27/12 A2993 RMK A01 T02730123  RH  039%=      5-min Rain = 0
KAHS 141900Z 23009KT 27/12 A2993 RMK A01 T02720122  RH  039%=      5-min Rain = 0
KAHS 141901Z 23007KT 27/12 A2993 RMK A01 T02720122  RH  039%=      5-min Rain = 0
KAHS 141902Z 23005KT 27/12 A2993 RMK A01 T02700120  RH  039%=      5-min Rain = 0
KAHS 141903Z 25006KT 27/12 A2993 RMK A01 T02700121  RH  040%=      5-min Rain = 0
KAHS 141904Z 23005KT 27/12 A2993 RMK A01 T02710122  RH  040%=      5-min Rain = 0
KAHS 141905Z 26003KT 28/13 A2993 RMK A01 T02750126  RH  040%=      5-min Rain = 0
KAHS 141906Z 26009KT 28/12 A2993 RMK A01 T02800123  RH  038%=      5-min Rain = 0
KAHS 141907Z 21009KT 28/12 A2993 RMK A01 T02800122  RH  038%=      5-min Rain = 0
KAHS 141908Z 22005KT 28/12 A2992 RMK A01 T02780123  RH  038%=      5-min Rain = 0
KAHS 141909Z 23007KT 28/12 A2992 RMK A01 T02800124  RH  038%=      5-min Rain = 0
KAHS 141910Z 22007KT 28/12 A2992 RMK A01 T02800122  RH  038%=      5-min Rain = 0
KAHS 141911Z 21007KT 28/12 A2992 RMK A01 T02840124  RH  037%=      5-min Rain = 0
KAHS 141912Z 22006KT 29/12 A2992 RMK A01 T02850124  RH  037%=      5-min Rain = 0
KAHS 141913Z 21010KT 29/12 A2992 RMK A01 T02860124  RH  037%=      5-min Rain = 0
KAHS 141914Z 19009KT 28/12 A2992 RMK A01 T02810124  RH  038%=      5-min Rain = 0
KAHS 141915Z 19010KT 28/12 A2992 RMK A01 T02800124  RH  038%=      5-min Rain = 0
KAHS 141916Z 20007KT 28/12 A2992 RMK A01 T02800124  RH  038%=      5-min Rain = 0
KAHS 141917Z 19006KT 28/13 A2992 RMK A01 T02810125  RH  038%=      5-min Rain = 0
KAHS 141918Z 19008KT 28/13 A2992 RMK A01 T02830125  RH  038%=      5-min Rain = 0
KAHS 141919Z 20006KT 28/12 A2992 RMK A01 T02810124  RH  038%=      5-min Rain = 0
KAHS 141920Z 20008KT 28/13 A2992 RMK A01 T02820125  RH  038%=      5-min Rain = 0
KAHS 141921Z 22012KT 28/12 A2992 RMK A01 T02820123  RH  037%=      5-min Rain = 0
KAHS 141922Z 23011KT 28/12 A2992 RMK A01 T02810123  RH  038%=      5-min Rain = 0
KAHS 141923Z 23009KT 28/12 A2992 RMK A01 T02800124  RH  038%=      5-min Rain = 0
KAHS 141924Z 24008KT 28/12 A2992 RMK A01 T02790124  RH  038%=      5-min Rain = 0
KAHS 141925Z 24009KT 28/12 A2992 RMK A01 T02800123  RH  038%=      5-min Rain = 0
KAHS 141926Z 23006KT 28/12 A2992 RMK A01 T02780122  RH  038%=      5-min Rain = 0
KAHS 141927Z 24008KT 28/12 A2992 RMK A01 T02790123  RH  038%=      5-min Rain = 0
KAHS 141928Z 23007KT 28/12 A2992 RMK A01 T02810123  RH  038%=      5-min Rain = 0
KAHS 141929Z 24008KT 28/12 A2992 RMK A01 T02810124  RH  038%=      5-min Rain = 0
KAHS 141930Z 21010KT 28/12 A2991 RMK A01 T02820124  RH  038%=      5-min Rain = 0
KAHS 141931Z 20012KT 28/12 A2991 RMK A01 T02840124  RH  037%=      5-min Rain = 0
KAHS 141932Z 22008KT 28/12 A2991 RMK A01 T02840124  RH  037%=      5-min Rain = 0
KAHS 141933Z 23007KT 28/12 A2991 RMK A01 T02820124  RH  037%=      5-min Rain = 0
KAHS 141934Z 21006KT 28/12 A2991 RMK A01 T02830124  RH  037%=      5-min Rain = 0
KAHS 141935Z 20008KT 29/13 A2991 RMK A01 T02850125  RH  037%=      5-min Rain = 0
KAHS 141936Z 24012KT 29/13 A2991 RMK A01 T02900125  RH  036%=      5-min Rain = 0
KAHS 141937Z 24011KT 29/12 A2991 RMK A01 T02880123  RH  036%=      5-min Rain = 0
KAHS 141938Z 22008KT 28/12 A2991 RMK A01 T02840122  RH  037%=      5-min Rain = 0
KAHS 141939Z 22005KT 28/12 A2991 RMK A01 T02830123  RH  037%=      5-min Rain = 0
KAHS 141940Z 24006KT 28/12 A2991 RMK A01 T02840123  RH  037%=      5-min Rain = 0
KAHS 141941Z 21008KT 29/13 A2991 RMK A01 T02880125  RH  037%=      5-min Rain = 0
KAHS 141942Z 23006KT 29/13 A2991 RMK A01 T02880125  RH  037%=      5-min Rain = 0
KAHS 141943Z 25008KT 29/13 A2991 RMK A01 T02880125  RH  036%=      5-min Rain = 0
KAHS 141944Z 21008KT 29/13 A2991 RMK A01 T02870125  RH  037%=      5-min Rain = 0
KAHS 141945Z 22007KT 29/13 A2991 RMK A01 T02860126  RH  037%=      5-min Rain = 0
KAHS 141946Z 24007KT 29/13 A2991 RMK A01 T02890126  RH  037%=      5-min Rain = 0
KAHS 141947Z 23007G13KT 29/12 A2991 RMK A01 T02880122  RH  036%=      5-min Rain = 0
KAHS 141948Z 23011KT 29/12 A2991 RMK A01 T02870124  RH  037%=      5-min Rain = 0
KAHS 141949Z 23008G13KT 29/13 A2991 RMK A01 T02860126  RH  037%=      5-min Rain = 0
KAHS 141950Z 21007KT 29/13 A299 RMK A01 T02860127  RH  038%=      5-min Rain = 0
KAHS 141951Z 22008KT 29/13 A299 RMK A01 T02860127  RH  037%=      5-min Rain = 0
KAHS 141952Z 24013KT 29/12 A299 RMK A01 T02880119  RH  035%=      5-min Rain = 0
KAHS 141953Z 25014KT 29/12 A299 RMK A01 T02880118  RH  035%=      5-min Rain = 0
KAHS 141954Z 23009KT 29/12 A299 RMK A01 T02880120  RH  035%=      5-min Rain = 0
KAHS 141955Z 24009G14KT 29/12 A299 RMK A01 T02900122  RH  035%=      5-min Rain = 0
KAHS 141956Z 25007KT 29/13 A299 RMK A01 T02930126  RH  036%=      5-min Rain = 0
KAHS 141957Z 24008G16KT 30/13 A299 RMK A01 T02950126  RH  035%=      5-min Rain = 0
KAHS 141958Z 24014KT 30/13 A299 RMK A01 T02950127  RH  036%=      5-min Rain = 0
KAHS 141959Z 23012KT 29/13 A299 RMK A01 T02920128  RH  036%=      5-min Rain = 0
KAHS 142000Z 23013G19KT 29/13 A299 RMK A01 T02930128  RH  036%=      5-min Rain = 0
KAHS 142001Z 23013KT 29/13 A299 RMK A01 T02920127  RH  036%=      5-min Rain = 0
KAHS 142002Z 23012KT 29/13 A2989 RMK A01 T02900127  RH  037%=      5-min Rain = 0
KAHS 142003Z 23011KT 29/13 A2989 RMK A01 T02890128  RH  037%=      5-min Rain = 0
KAHS 142004Z 23012KT 29/13 A2989 RMK A01 T02900129  RH  037%=      5-min Rain = 0
KAHS 142005Z 22008KT 29/13 A2989 RMK A01 T02890129  RH  037%=      5-min Rain = 0
KAHS 142006Z 21009KT 29/13 A2989 RMK A01 T02900130  RH  037%=      5-min Rain = 0
KAHS 142007Z 23008KT 29/13 A2989 RMK A01 T02930131  RH  037%=      5-min Rain = 0
KAHS 142008Z 23010KT 30/13 A2989 RMK A01 T02950131  RH  037%=      5-min Rain = 0
KAHS 142009Z 24010KT 30/13 A2989 RMK A01 T02950131  RH  037%=      5-min Rain = 0
KAHS 142010Z 25012G17KT 29/13 A2989 RMK A01 T02940131  RH  037%=      5-min Rain = 0
KAHS 142011Z 26014KT 29/13 A2989 RMK A01 T02920130  RH  037%=      5-min Rain = 0
KAHS 142012Z 24011KT 29/13 A2989 RMK A01 T02900128  RH  037%=      5-min Rain = 0
KAHS 142013Z 26011G16KT 29/13 A2989 RMK A01 T02910130  RH  037%=      5-min Rain = 0
KAHS 142014Z 24012G17KT 29/13 A2989 RMK A01 T02940130  RH  037%=      5-min Rain = 0
KAHS 142015Z 23011KT 29/13 A2989 RMK A01 T02930131  RH  037%=      5-min Rain = 0
KAHS 142016Z 25011KT 29/13 A2989 RMK A01 T02920132  RH  037%=      5-min Rain = 0
KAHS 142017Z 25007KT 29/13 A2989 RMK A01 T02900132  RH  038%=      5-min Rain = 0
KAHS 142018Z 26010KT 29/13 A2989 RMK A01 T02910133  RH  038%=      5-min Rain = 0
KAHS 142019Z 27009KT 29/13 A2989 RMK A01 T02900133  RH  038%=      5-min Rain = 0
KAHS 142020Z 25012KT 29/13 A2989 RMK A01 T02920134  RH  038%=      5-min Rain = 0
KAHS 142021Z 25011KT 29/13 A2989 RMK A01 T02930134  RH  038%=      5-min Rain = 0
KAHS 142022Z 24009KT 30/14 A2989 RMK A01 T02950135  RH  038%=      5-min Rain = 0
KAHS 142023Z 21012KT 30/14 A2988 RMK A01 T02970136  RH  037%=      5-min Rain = 0
KAHS 142024Z 24008KT 30/14 A2988 RMK A01 T02950137  RH  038%=      5-min Rain = 0
KAHS 142025Z 25009KT 30/14 A2988 RMK A01 T02970137  RH  038%=      5-min Rain = 0
KAHS 142026Z 21007KT 30/14 A2988 RMK A01 T02960138  RH  038%=      5-min Rain = 0
KAHS 142027Z 21012G17KT 30/14 A2988 RMK A01 T02980139  RH  038%=      5-min Rain = 0
KAHS 142028Z 23010G15KT 30/14 A2988 RMK A01 T02990138  RH  037%=      5-min Rain = 0
KAHS 142029Z 24009KT 30/14 A2988 RMK A01 T02970138  RH  038%=      5-min Rain = 0
KAHS 142030Z 24011KT 30/14 A2988 RMK A01 T02960137  RH  038%=      5-min Rain = 0
KAHS 142031Z 24012KT 29/14 A2988 RMK A01 T02940137  RH  038%=      5-min Rain = 0
KAHS 142032Z 22012KT 29/14 A2988 RMK A01 T02940138  RH  039%=      5-min Rain = 0
KAHS 142033Z 22010KT 30/14 A2988 RMK A01 T02970139  RH  038%=      5-min Rain = 0
KAHS 142034Z 21010G18KT 30/14 A2988 RMK A01 T02990139  RH  038%=      5-min Rain = 0
KAHS 142035Z 23012KT 30/14 A2988 RMK A01 T02970138  RH  038%=      5-min Rain = 0
KAHS 142036Z 24012KT 30/14 A2988 RMK A01 T02950139  RH  039%=      5-min Rain = 0
KAHS 142037Z 21009KT 29/14 A2988 RMK A01 T02940140  RH  039%=      5-min Rain = 0
KAHS 142038Z 20012KT 30/14 A2988 RMK A01 T02950139  RH  039%=      5-min Rain = 0
KAHS 142039Z 19012KT 29/14 A2988 RMK A01 T02930139  RH  039%=      5-min Rain = 0
KAHS 142040Z 18012KT 29/14 A2988 RMK A01 T02940140  RH  039%=      5-min Rain = 0
KAHS 142041Z 21014KT 30/14 A2988 RMK A01 T02960140  RH  039%=      5-min Rain = 0
KAHS 142042Z 22014G20KT 30/14 A2988 RMK A01 T02950140  RH  039%=      5-min Rain = 0
KAHS 142043Z 22010KT 30/14 A2988 RMK A01 T02980141  RH  038%=      5-min Rain = 0
KAHS 142044Z 21014KT 30/14 A2988 RMK A01 T02980139  RH  038%=      5-min Rain = 0
KAHS 142045Z 21009KT 30/14 A2988 RMK A01 T02950139  RH  039%=      5-min Rain = 0
KAHS 142046Z 21011KT 30/14 A2988 RMK A01 T02950139  RH  039%=      5-min Rain = 0
KAHS 142047Z 21011KT 30/14 A2988 RMK A01 T02950139  RH  039%=      5-min Rain = 0
KAHS 142048Z 20010KT 30/14 A2988 RMK A01 T02970140  RH  038%=      5-min Rain = 0
KAHS 142049Z 21011KT 30/14 A2988 RMK A01 T02960138  RH  038%=      5-min Rain = 0
KAHS 142050Z 21009KT 29/14 A2988 RMK A01 T02920137  RH  039%=      5-min Rain = 0
KAHS 142051Z 21013KT 29/14 A2988 RMK A01 T02930138  RH  039%=      5-min Rain = 0
KAHS 142052Z 23012KT 30/14 A2988 RMK A01 T02950139  RH  038%=      5-min Rain = 0
KAHS 142053Z 22010KT 29/14 A2988 RMK A01 T02940138  RH  038%=      5-min Rain = 0
KAHS 142054Z 22013KT 29/14 A2988 RMK A01 T02940138  RH  038%=      5-min Rain = 0
KAHS 142055Z 24011KT 29/14 A2988 RMK A01 T02930138  RH  038%=      5-min Rain = 0
KAHS 142056Z 21013KT 30/14 A2988 RMK A01 T02950138  RH  038%=      5-min Rain = 0
KAHS 142057Z 21011KT 30/14 A2988 RMK A01 T02960138  RH  038%=      5-min Rain = 0
KAHS 142058Z 21012KT 30/14 A2988 RMK A01 T02990138  RH  037%=      5-min Rain = 0
KAHS 142059Z 22013KT 30/14 A2988 RMK A01 T02980136  RH  037%=      5-min Rain = 0
KAHS 142100Z 22012G18KT 30/14 A2988 RMK A01 T02960136  RH  038%=      5-min Rain = 0
KAHS 142101Z 21014KT 29/14 A2988 RMK A01 T02940136  RH  038%=      5-min Rain = 0
KAHS 142102Z 23012G17KT 30/14 A2988 RMK A01 T02950137  RH  038%=      5-min Rain = 0
KAHS 142103Z 24010KT 30/14 A2988 RMK A01 T02990138  RH  037%=      5-min Rain = 0
KAHS 142104Z 23011KT 30/14 A2988 RMK A01 T02990137  RH  037%=      5-min Rain = 0
KAHS 142105Z 22012KT 30/14 A2988 RMK A01 T02970137  RH  037%=      5-min Rain = 0
KAHS 142106Z 22013KT 30/14 A2988 RMK A01 T02960136  RH  038%=      5-min Rain = 0
KAHS 142107Z 23011KT 30/14 A2988 RMK A01 T02960136  RH  038%=      5-min Rain = 0
KAHS 142108Z 21015KT 30/14 A2988 RMK A01 T02960136  RH  038%=      5-min Rain = 0
KAHS 142109Z 20011KT 29/14 A2988 RMK A01 T02940136  RH  038%=      5-min Rain = 0
KAHS 142110Z 21012KT 29/14 A2988 RMK A01 T02940137  RH  038%=      5-min Rain = 0
KAHS 142111Z 20012KT 30/14 A2988 RMK A01 T02960137  RH  038%=      5-min Rain = 0
KAHS 142112Z 20010G15KT 30/14 A2988 RMK A01 T02970137  RH  037%=      5-min Rain = 0
KAHS 142113Z 21013KT 30/14 A2988 RMK A01 T02970137  RH  038%=      5-min Rain = 0
KAHS 142114Z 22010KT 30/14 A2988 RMK A01 T02960137  RH  038%=      5-min Rain = 0
KAHS 142115Z 21009KT 30/14 A2988 RMK A01 T02990139  RH  038%=      5-min Rain = 0
KAHS 142116Z 23010G15KT 30/14 A2988 RMK A01 T03000138  RH  037%=      5-min Rain = 0
KAHS 142117Z 24010KT 30/14 A2988 RMK A01 T03010137  RH  037%=      5-min Rain = 0
KAHS 142118Z 23009KT 30/14 A2988 RMK A01 T02980137  RH  037%=      5-min Rain = 0
KAHS 142119Z 21013KT 30/14 A2988 RMK A01 T02980137  RH  037%=      5-min Rain = 0
KAHS 142120Z 23012KT 30/14 A2988 RMK A01 T02970138  RH  038%=      5-min Rain = 0
KAHS 142121Z 23014KT 30/14 A2988 RMK A01 T02970138  RH  038%=      5-min Rain = 0
KAHS 142122Z 23014KT 30/14 A2988 RMK A01 T02950136  RH  038%=      5-min Rain = 0
KAHS 142123Z 22012KT 29/14 A2988 RMK A01 T02930136  RH  038%=      5-min Rain = 0
KAHS 142124Z 23014KT 29/14 A2988 RMK A01 T02910137  RH  039%=      5-min Rain = 0
KAHS 142125Z 22013KT 29/14 A2988 RMK A01 T02920137  RH  039%=      5-min Rain = 0
KAHS 142126Z 22011KT 29/14 A2988 RMK A01 T02910137  RH  039%=      5-min Rain = 0
KAHS 142127Z 20009KT 29/14 A2988 RMK A01 T02930137  RH  039%=      5-min Rain = 0
KAHS 142128Z 21009KT 30/14 A2988 RMK A01 T02950138  RH  038%=      5-min Rain = 0
KAHS 142129Z 20013G19KT 30/14 A2988 RMK A01 T02950137  RH  038%=      5-min Rain = 0
KAHS 142130Z 21013KT 29/14 A2988 RMK A01 T02920137  RH  039%=      5-min Rain = 0
KAHS 142131Z 21013KT 29/14 A2988 RMK A01 T02890137  RH  039%=      5-min Rain = 0
KAHS 142132Z 22013KT 29/14 A2988 RMK A01 T02870137  RH  040%=      5-min Rain = 0
KAHS 142133Z 20014KT 29/14 A2988 RMK A01 T02860136  RH  040%=      5-min Rain = 0
KAHS 142134Z 20011KT 29/14 A2988 RMK A01 T02850136  RH  040%=      5-min Rain = 0
KAHS 142135Z 21009KT 29/14 A2988 RMK A01 T02850137  RH  040%=      5-min Rain = 0
KAHS 142136Z 21010KT 29/14 A2988 RMK A01 T02870137  RH  040%=      5-min Rain = 0
KAHS 142137Z 21010KT 29/14 A2988 RMK A01 T02870137  RH  040%=      5-min Rain = 0
KAHS 142138Z 21011KT 29/14 A2988 RMK A01 T02880137  RH  040%=      5-min Rain = 0
KAHS 142139Z 22013KT 29/14 A2988 RMK A01 T02900138  RH  039%=      5-min Rain = 0
KAHS 142140Z 22012KT 29/14 A2988 RMK A01 T02910137  RH  039%=      5-min Rain = 0
KAHS 142141Z 24013KT 29/14 A2988 RMK A01 T02900136  RH  039%=      5-min Rain = 0
KAHS 142142Z 23011KT 29/14 A2988 RMK A01 T02880135  RH  039%=      5-min Rain = 0
KAHS 142143Z 24011KT 29/14 A2988 RMK A01 T02880137  RH  040%=      5-min Rain = 0
KAHS 142144Z 23013KT 29/14 A2988 RMK A01 T02920138  RH  039%=      5-min Rain = 0
KAHS 142145Z 21013KT 30/14 A2988 RMK A01 T02950137  RH  038%=      5-min Rain = 0
KAHS 142146Z 21011G16KT 30/14 A2988 RMK A01 T02960137  RH  038%=      5-min Rain = 0
KAHS 142147Z 20012KT 30/14 A2988 RMK A01 T02970138  RH  038%=      5-min Rain = 0
KAHS 142148Z 20013KT 30/14 A2988 RMK A01 T02960136  RH  037%=      5-min Rain = 0
KAHS 142149Z 20011KT 30/14 A2988 RMK A01 T02950137  RH  038%=      5-min Rain = 0
KAHS 142150Z 20011KT 30/14 A2988 RMK A01 T02960137  RH  038%=      5-min Rain = 0
KAHS 142151Z 19010KT 30/14 A2987 RMK A01 T02960137  RH  038%=      5-min Rain = 0
KAHS 142152Z 20009KT 30/14 A2987 RMK A01 T02960136  RH  038%=      5-min Rain = 0
KAHS 142153Z 21011KT 30/14 A2987 RMK A01 T02970136  RH  037%=      5-min Rain = 0
KAHS 142154Z 20014KT 30/14 A2987 RMK A01 T02960137  RH  038%=      5-min Rain = 0
KAHS 142155Z 23012KT 30/14 A2988 RMK A01 T02970137  RH  038%=      5-min Rain = 0
KAHS 142156Z 23012KT 30/14 A2987 RMK A01 T02950136  RH  038%=      5-min Rain = 0
KAHS 142157Z 24013G18KT 30/14 A2988 RMK A01 T02950137  RH  038%=      5-min Rain = 0
KAHS 142158Z 24010KT 30/14 A2988 RMK A01 T02950137  RH  038%=      5-min Rain = 0
KAHS 142159Z 22010KT 30/14 A2988 RMK A01 T02950137  RH  038%=      5-min Rain = 0
KAHS 142200Z 22010KT 30/14 A2988 RMK A01 T02960137  RH  038%=      5-min Rain = 0
KAHS 142201Z 22010KT 30/14 A2988 RMK A01 T02960136  RH  038%=      5-min Rain = 0
KAHS 142202Z 24011KT 29/14 A2988 RMK A01 T02930136  RH  038%=      5-min Rain = 0
KAHS 142203Z 23010KT 29/14 A2987 RMK A01 T02930137  RH  038%=      5-min Rain = 0
KAHS 142204Z 23011G16KT 29/14 A2988 RMK A01 T02940137  RH  038%=      5-min Rain = 0
KAHS 142205Z 24015KT 29/14 A2987 RMK A01 T02930137  RH  038%=      5-min Rain = 0
KAHS 142206Z 24011KT 29/14 A2988 RMK A01 T02900137  RH  039%=      5-min Rain = 0
KAHS 142207Z 23008KT 29/14 A2988 RMK A01 T02920138  RH  039%=      5-min Rain = 0
KAHS 142208Z 23010KT 29/14 A2988 RMK A01 T02920136  RH  039%=      5-min Rain = 0
KAHS 142209Z 22009KT 29/14 A2988 RMK A01 T02900137  RH  039%=      5-min Rain = 0
KAHS 142210Z 23009KT 29/14 A2988 RMK A01 T02910137  RH  039%=      5-min Rain = 0
KAHS 142211Z 22008KT 29/14 A2987 RMK A01 T02900136  RH  039%=      5-min Rain = 0
KAHS 142212Z 21007KT 29/14 A2987 RMK A01 T02890137  RH  039%=      5-min Rain = 0
KAHS 142213Z 20011KT 29/14 A2987 RMK A01 T02890137  RH  039%=      5-min Rain = 0
KAHS 142214Z 20010KT 29/14 A2987 RMK A01 T02870136  RH  039%=      5-min Rain = 0
KAHS 142215Z 21010KT 29/14 A2987 RMK A01 T02870137  RH  040%=      5-min Rain = 0
KAHS 142216Z 22012KT 29/14 A2987 RMK A01 T02890136  RH  039%=      5-min Rain = 0
KAHS 142217Z 22009KT 29/14 A2987 RMK A01 T02890137  RH  039%=      5-min Rain = 0
KAHS 142218Z 21011KT 29/14 A2987 RMK A01 T02910137  RH  039%=      5-min Rain = 0
KAHS 142219Z 21013KT 29/14 A2987 RMK A01 T02910136  RH  039%=      5-min Rain = 0
KAHS 142220Z 23012KT 29/14 A2987 RMK A01 T02900136  RH  039%=      5-min Rain = 0
KAHS 142221Z 23010KT 29/14 A2987 RMK A01 T02910136  RH  039%=      5-min Rain = 0
KAHS 142222Z 24011KT 29/14 A2987 RMK A01 T02900136  RH  039%=      5-min Rain = 0
KAHS 142223Z 22010KT 29/14 A2987 RMK A01 T02900135  RH  039%=      5-min Rain = 0
KAHS 142224Z 23008KT 29/14 A2987 RMK A01 T02920136  RH  038%=      5-min Rain = 0
KAHS 142225Z 23007KT 29/14 A2987 RMK A01 T02920136  RH  038%=      5-min Rain = 0
KAHS 142226Z 21010KT 29/14 A2987 RMK A01 T02930136  RH  038%=      5-min Rain = 0
KAHS 142227Z 21015KT 29/14 A2987 RMK A01 T02920135  RH  038%=      5-min Rain = 0
KAHS 142228Z 21013KT 29/14 A2987 RMK A01 T02900135  RH  039%=      5-min Rain = 0
KAHS 142229Z 22011KT 29/14 A2987 RMK A01 T02900136  RH  039%=      5-min Rain = 0
KAHS 142230Z 22011KT 29/14 A2987 RMK A01 T02910136  RH  039%=      5-min Rain = 0
KAHS 142231Z 21010KT 29/14 A2987 RMK A01 T02900136  RH  039%=      5-min Rain = 0
KAHS 142232Z 21010KT 29/14 A2987 RMK A01 T02900136  RH  039%=      5-min Rain = 0
KAHS 142233Z 21011KT 29/14 A2987 RMK A01 T02900136  RH  039%=      5-min Rain = 0
KAHS 142234Z 21008KT 29/14 A2987 RMK A01 T02890136  RH  039%=      5-min Rain = 0
KAHS 142235Z 22013KT 29/14 A2987 RMK A01 T02900136  RH  039%=      5-min Rain = 0
KAHS 142236Z 23011KT 29/14 A2987 RMK A01 T02880136  RH  039%=      5-min Rain = 0
KAHS 142237Z 22009KT 29/14 A2987 RMK A01 T02870136  RH  039%=      5-min Rain = 0
KAHS 142238Z 23009KT 29/14 A2987 RMK A01 T02850135  RH  040%=      5-min Rain = 0
KAHS 142239Z 21007KT 28/14 A2987 RMK A01 T02830135  RH  040%=      5-min Rain = 0
KAHS 142240Z 22008KT 28/14 A2987 RMK A01 T02820135  RH  040%=      5-min Rain = 0
KAHS 142241Z 22007KT 28/14 A2987 RMK A01 T02810135  RH  041%=      5-min Rain = 0
KAHS 142242Z 22007KT 28/14 A2987 RMK A01 T02810135  RH  041%=      5-min Rain = 0
KAHS 142243Z 21009KT 28/14 A2987 RMK A01 T02810135  RH  041%=      5-min Rain = 0
KAHS 142244Z 23007KT 28/14 A2987 RMK A01 T02800135  RH  041%=      5-min Rain = 0
KAHS 142245Z 24006KT 28/14 A2987 RMK A01 T02810135  RH  041%=      5-min Rain = 0
KAHS 142246Z 24009KT 28/14 A2987 RMK A01 T02820135  RH  040%=      5-min Rain = 0
KAHS 142247Z 23010KT 28/13 A2987 RMK A01 T02820134  RH  040%=      5-min Rain = 0
KAHS 142248Z 21007KT 28/14 A2987 RMK A01 T02840135  RH  040%=      5-min Rain = 0
KAHS 142249Z 22009KT 28/13 A2987 RMK A01 T02840134  RH  040%=      5-min Rain = 0
KAHS 142250Z 21010KT 28/13 A2987 RMK A01 T02840134  RH  040%=      5-min Rain = 0
KAHS 142251Z 22009KT 28/13 A2987 RMK A01 T02830134  RH  040%=      5-min Rain = 0
KAHS 142252Z 22008KT 28/13 A2987 RMK A01 T02820134  RH  040%=      5-min Rain = 0
KAHS 142253Z 21007KT 28/13 A2987 RMK A01 T02820134  RH  040%=      5-min Rain = 0
KAHS 142254Z 20009KT 28/13 A2987 RMK A01 T02830134  RH  040%=      5-min Rain = 0
KAHS 142255Z 21011KT 28/14 A2987 RMK A01 T02830135  RH  040%=      5-min Rain = 0
KAHS 142256Z 21008KT 28/14 A2987 RMK A01 T02840137  RH  040%=      5-min Rain = 0
KAHS 142257Z 22009KT 29/14 A2987 RMK A01 T02860138  RH  040%=      5-min Rain = 0
KAHS 142258Z 21009KT 29/14 A2987 RMK A01 T02870138  RH  040%=      5-min Rain = 0
KAHS 142259Z 20012KT 29/14 A2987 RMK A01 T02870137  RH  040%=      5-min Rain = 0
KAHS 142300Z 21011KT 29/14 A2987 RMK A01 T02870137  RH  040%=      5-min Rain = 0
KAHS 142301Z 21008KT 29/14 A2987 RMK A01 T02870137  RH  040%=      5-min Rain = 0
KAHS 142302Z 22009KT 29/14 A2987 RMK A01 T02880138  RH  040%=      5-min Rain = 0
KAHS 142303Z 21007KT 29/14 A2987 RMK A01 T02900139  RH  040%=      5-min Rain = 0
KAHS 142304Z 21009KT 29/14 A2987 RMK A01 T02910138  RH  039%=      5-min Rain = 0
KAHS 142305Z 20011KT 29/14 A2987 RMK A01 T02910137  RH  039%=      5-min Rain = 0
KAHS 142306Z 21013KT 29/14 A2987 RMK A01 T02910137  RH  039%=      5-min Rain = 0
KAHS 142307Z 21012KT 29/14 A2987 RMK A01 T02900136  RH  039%=      5-min Rain = 0
KAHS 142308Z 21011KT 29/14 A2987 RMK A01 T02890136  RH  039%=      5-min Rain = 0
KAHS 142309Z 21009KT 29/14 A2987 RMK A01 T02890137  RH  039%=      5-min Rain = 0
KAHS 142310Z 23009KT 29/14 A2987 RMK A01 T02890136  RH  039%=      5-min Rain = 0
KAHS 142311Z 21009KT 29/14 A2987 RMK A01 T02880137  RH  039%=      5-min Rain = 0
KAHS 142312Z 21007KT 29/14 A2987 RMK A01 T02880137  RH  040%=      5-min Rain = 0
KAHS 142313Z 20007KT 29/14 A2987 RMK A01 T02880139  RH  040%=      5-min Rain = 0
KAHS 142314Z 18010KT 29/14 A2987 RMK A01 T02880139  RH  040%=      5-min Rain = 0
KAHS 142315Z 20011KT 29/14 A2987 RMK A01 T02870139  RH  040%=      5-min Rain = 0
KAHS 142316Z 19011KT 29/14 A2987 RMK A01 T02860139  RH  041%=      5-min Rain = 0
KAHS 142317Z 19012KT 28/14 A2987 RMK A01 T02840139  RH  041%=      5-min Rain = 0
KAHS 142318Z 19011KT 28/14 A2987 RMK A01 T02840139  RH  041%=      5-min Rain = 0
KAHS 142319Z 20010KT 28/14 A2987 RMK A01 T02820138  RH  041%=      5-min Rain = 0
KAHS 142320Z 20011KT 28/14 A2987 RMK A01 T02820138  RH  041%=      5-min Rain = 0
KAHS 142321Z 20010KT 28/14 A2987 RMK A01 T02810138  RH  041%=      5-min Rain = 0
KAHS 142322Z 19008KT 28/14 A2987 RMK A01 T02810138  RH  041%=      5-min Rain = 0
KAHS 142323Z 20009G14KT 28/14 A2987 RMK A01 T02820137  RH  041%=      5-min Rain = 0
KAHS 142324Z 21012KT 28/13 A2987 RMK A01 T02830134  RH  040%=      5-min Rain = 0
KAHS 142325Z 20011KT 28/13 A2987 RMK A01 T02830133  RH  040%=      5-min Rain = 0
KAHS 142326Z 21009KT 28/13 A2987 RMK A01 T02830133  RH  040%=      5-min Rain = 0
KAHS 142327Z 21009KT 28/13 A2987 RMK A01 T02840133  RH  039%=      5-min Rain = 0
KAHS 142328Z 22010G15KT 28/13 A2987 RMK A01 T02840133  RH  039%=      5-min Rain = 0
KAHS 142329Z 22012KT 28/13 A2987 RMK A01 T02830133  RH  040%=      5-min Rain = 0
KAHS 142330Z 22012KT 28/13 A2987 RMK A01 T02820134  RH  040%=      5-min Rain = 0
KAHS 142331Z 22011KT 28/13 A2987 RMK A01 T02810133  RH  040%=      5-min Rain = 0
KAHS 142332Z 22011KT 28/13 A2987 RMK A01 T02810134  RH  040%=      5-min Rain = 0
KAHS 142333Z 22008KT 28/14 A2987 RMK A01 T02810135  RH  041%=      5-min Rain = 0
KAHS 142334Z 21009KT 28/14 A2987 RMK A01 T02810135  RH  041%=      5-min Rain = 0
KAHS 142335Z 21010KT 28/14 A2987 RMK A01 T02810136  RH  041%=      5-min Rain = 0
KAHS 142336Z 21009KT 28/14 A2987 RMK A01 T02800137  RH  041%=      5-min Rain = 0
KAHS 142337Z 20009KT 28/14 A2987 RMK A01 T02800137  RH  042%=      5-min Rain = 0
KAHS 142338Z 20011KT 28/14 A2988 RMK A01 T02790140  RH  042%=      5-min Rain = 0
KAHS 142339Z 19011KT 28/14 A2987 RMK A01 T02770143  RH  044%=      5-min Rain = 0
KAHS 142340Z 20011KT 28/14 A2988 RMK A01 T02760144  RH  045%=      5-min Rain = 0
KAHS 142341Z 20008KT 27/15 A2988 RMK A01 T02740145  RH  045%=      5-min Rain = 0
KAHS 142342Z 19009KT 27/15 A2988 RMK A01 T02740146  RH  045%=      5-min Rain = 0
KAHS 142343Z 19011KT 27/15 A2988 RMK A01 T02730145  RH  046%=      5-min Rain = 0
KAHS 142344Z 19011KT 27/15 A2988 RMK A01 T02720145  RH  046%=      5-min Rain = 0
KAHS 142345Z 19011KT 27/15 A2988 RMK A01 T02710145  RH  046%=      5-min Rain = 0
KAHS 142346Z 19009KT 27/15 A2988 RMK A01 T02710145  RH  046%=      5-min Rain = 0
KAHS 142347Z 19009KT 27/14 A2988 RMK A01 T02700144  RH  046%=      5-min Rain = 0
KAHS 142348Z 19008KT 27/15 A2988 RMK A01 T02700145  RH  046%=      5-min Rain = 0
KAHS 142349Z 19008KT 27/15 A2987 RMK A01 T02700145  RH  046%=      5-min Rain = 0
KAHS 142350Z 19009KT 27/15 A2987 RMK A01 T02690145  RH  047%=      5-min Rain = 0
KAHS 142351Z 20008KT 27/15 A2987 RMK A01 T02690145  RH  047%=      5-min Rain = 0
KAHS 142352Z 20009KT 27/15 A2987 RMK A01 T02680145  RH  047%=      5-min Rain = 0
KAHS 142353Z 20009KT 27/15 A2987 RMK A01 T02680146  RH  047%=      5-min Rain = 0
KAHS 142354Z 20010KT 27/15 A2987 RMK A01 T02680146  RH  047%=      5-min Rain = 0
KAHS 142355Z 20008KT 27/15 A2987 RMK A01 T02680146  RH  047%=      5-min Rain = 0
KAHS 142356Z 20008KT 27/15 A2987 RMK A01 T02670145  RH  047%=      5-min Rain = 0
KAHS 142357Z 19009KT 27/14 A2987 RMK A01 T02670144  RH  047%=      5-min Rain = 0
KAHS 142358Z 19010KT 27/14 A2987 RMK A01 T02660144  RH  047%=      5-min Rain = 0
KAHS 142359Z 20011KT 27/14 A2987 RMK A01 T02660144  RH  047%=      5-min Rain = 0
KAHS 150000Z 19008KT 27/14 A2988 RMK A01 T02660144  RH  047%=      5-min Rain = 0
KAHS 150001Z 19008KT 27/14 A2988 RMK A01 T02650144  RH  047%=      5-min Rain = 0
KAHS 150002Z 19007KT 26/14 A2988 RMK A01 T02640144  RH  047%=      5-min Rain = 0
KAHS 150003Z 20008KT 26/14 A2988 RMK A01 T02640144  RH  048%=      5-min Rain = 0
KAHS 150004Z 20009KT 26/14 A2988 RMK A01 T02630143  RH  048%=      5-min Rain = 0
KAHS 150005Z 20007KT 26/14 A2988 RMK A01 T02630143  RH  048%=      5-min Rain = 0
KAHS 150006Z 20007KT 26/14 A2988 RMK A01 T02630143  RH  048%=      5-min Rain = 0
KAHS 150007Z 20009KT 26/14 A2988 RMK A01 T02620143  RH  048%=      5-min Rain = 0
KAHS 150008Z 19009KT 26/14 A2988 RMK A01 T02620143  RH  048%=      5-min Rain = 0
KAHS 150009Z 20009KT 26/14 A2988 RMK A01 T02630141  RH  047%=      5-min Rain = 0
KAHS 150010Z 20011KT 26/14 A2988 RMK A01 T02620139  RH  047%=      5-min Rain = 0
KAHS 150011Z 20009KT 26/14 A2988 RMK A01 T02630138  RH  046%=      5-min Rain = 0
KAHS 150012Z 20009KT 26/14 A2988 RMK A01 T02620137  RH  046%=      5-min Rain = 0
KAHS 150013Z 20010KT 26/14 A2988 RMK A01 T02620136  RH  046%=      5-min Rain = 0
KAHS 150014Z 20009KT 26/14 A2988 RMK A01 T02620136  RH  046%=      5-min Rain = 0
KAHS 150015Z 20007KT 26/14 A2988 RMK A01 T02620136  RH  046%=      5-min Rain = 0
KAHS 150016Z 20009KT 26/14 A2988 RMK A01 T02610137  RH  046%=      5-min Rain = 0
KAHS 150017Z 20007KT 26/14 A2988 RMK A01 T02610138  RH  047%=      5-min Rain = 0
KAHS 150018Z 20008KT 26/14 A2988 RMK A01 T02600138  RH  047%=      5-min Rain = 0
KAHS 150019Z 20008KT 26/14 A2988 RMK A01 T02600139  RH  047%=      5-min Rain = 0
KAHS 150020Z 20009KT 26/14 A2988 RMK A01 T02590140  RH  048%=      5-min Rain = 0
KAHS 150021Z 20008KT 26/14 A2988 RMK A01 T02590140  RH  048%=      5-min Rain = 0
KAHS 150022Z 19008KT 26/14 A2988 RMK A01 T02580141  RH  048%=      5-min Rain = 0
KAHS 150023Z 19008KT 26/14 A2988 RMK A01 T02570141  RH  049%=      5-min Rain = 0
KAHS 150024Z 19008KT 26/14 A2988 RMK A01 T02570142  RH  049%=      5-min Rain = 0
KAHS 150025Z 19008KT 26/14 A2988 RMK A01 T02560143  RH  050%=      5-min Rain = 0
KAHS 150026Z 19009KT 26/14 A2988 RMK A01 T02550143  RH  050%=      5-min Rain = 0
KAHS 150027Z 20009KT 26/14 A2988 RMK A01 T02550143  RH  050%=      5-min Rain = 0
KAHS 150028Z 19008KT 26/14 A2988 RMK A01 T02550143  RH  050%=      5-min Rain = 0
KAHS 150029Z 20009KT 26/14 A2988 RMK A01 T02550144  RH  050%=      5-min Rain = 0
KAHS 150030Z 19008KT 26/14 A2988 RMK A01 T02550144  RH  050%=      5-min Rain = 0
KAHS 150031Z 19009KT 25/15 A2988 RMK A01 T02540145  RH  051%=      5-min Rain = 0
KAHS 150032Z 19010KT 25/15 A2988 RMK A01 T02530145  RH  051%=      5-min Rain = 0
KAHS 150033Z 19010KT 25/15 A2988 RMK A01 T02530145  RH  051%=      5-min Rain = 0
KAHS 150034Z 19008KT 25/15 A2988 RMK A01 T02530146  RH  051%=      5-min Rain = 0
KAHS 150035Z 19007KT 25/15 A2988 RMK A01 T02530145  RH  051%=      5-min Rain = 0
KAHS 150036Z 20010KT 25/15 A2988 RMK A01 T02520146  RH  052%=      5-min Rain = 0
KAHS 150037Z 20010KT 25/15 A2988 RMK A01 T02520146  RH  052%=      5-min Rain = 0
KAHS 150038Z 20009KT 25/15 A2988 RMK A01 T02520145  RH  052%=      5-min Rain = 0
KAHS 150039Z 19007KT 25/15 A2988 RMK A01 T02520145  RH  052%=      5-min Rain = 0
KAHS 150040Z 20007KT 25/15 A2988 RMK A01 T02510145  RH  052%=      5-min Rain = 0
KAHS 150041Z 19009KT 25/15 A2988 RMK A01 T02510145  RH  052%=      5-min Rain = 0
KAHS 150042Z 19008KT 25/15 A2988 RMK A01 T02510145  RH  052%=      5-min Rain = 0
KAHS 150043Z 20007KT 25/15 A2988 RMK A01 T02500145  RH  052%=      5-min Rain = 0
KAHS 150044Z 20007KT 25/14 A2988 RMK A01 T02500144  RH  052%=      5-min Rain = 0
KAHS 150045Z 20007KT 25/14 A2988 RMK A01 T02490143  RH  052%=      5-min Rain = 0
KAHS 150046Z 20007KT 25/14 A2988 RMK A01 T02490143  RH  052%=      5-min Rain = 0
KAHS 150047Z 20008KT 25/14 A2988 RMK A01 T02490142  RH  051%=      5-min Rain = 0
KAHS 150048Z 20007KT 25/14 A2988 RMK A01 T02490142  RH  051%=      5-min Rain = 0
KAHS 150049Z 21008KT 25/14 A2988 RMK A01 T02490141  RH  051%=      5-min Rain = 0
KAHS 150050Z 20007KT 25/14 A2988 RMK A01 T02490142  RH  051%=      5-min Rain = 0
KAHS 150051Z 21008KT 25/14 A2988 RMK A01 T02480141  RH  051%=      5-min Rain = 0
KAHS 150052Z 20007KT 25/14 A2988 RMK A01 T02480142  RH  051%=      5-min Rain = 0
KAHS 150053Z 20007KT 25/14 A2988 RMK A01 T02480141  RH  051%=      5-min Rain = 0
KAHS 150054Z 20007KT 25/14 A2988 RMK A01 T02470141  RH  051%=      5-min Rain = 0
KAHS 150055Z 20006KT 25/14 A2989 RMK A01 T02470141  RH  052%=      5-min Rain = 0
KAHS 150056Z 20007KT 25/14 A2989 RMK A01 T02470141  RH  052%=      5-min Rain = 0
KAHS 150057Z 20006KT 25/14 A2989 RMK A01 T02460141  RH  052%=      5-min Rain = 0
KAHS 150058Z 20006KT 25/14 A2989 RMK A01 T02460140  RH  052%=      5-min Rain = 0
KAHS 150059Z 20006KT 25/14 A2989 RMK A01 T02450140  RH  052%=      5-min Rain = 0
KAHS 150100Z 20006KT 25/14 A2989 RMK A01 T02450140  RH  052%=      5-min Rain = 0
KAHS 150101Z 20006KT 24/14 A2989 RMK A01 T02440140  RH  052%=      5-min Rain = 0
KAHS 150102Z 20007KT 24/14 A2989 RMK A01 T02440140  RH  052%=      5-min Rain = 0
KAHS 150103Z 20007KT 24/14 A2989 RMK A01 T02430140  RH  052%=      5-min Rain = 0
KAHS 150104Z 20006KT 24/14 A2989 RMK A01 T02430140  RH  052%=      5-min Rain = 0
KAHS 150105Z 20007KT 24/14 A2989 RMK A01 T02430140  RH  052%=      5-min Rain = 0
KAHS 150106Z 20007KT 24/14 A2989 RMK A01 T02430139  RH  052%=      5-min Rain = 0
KAHS 150107Z 21006KT 24/14 A2989 RMK A01 T02420140  RH  053%=      5-min Rain = 0
KAHS 150108Z 20006KT 24/14 A2989 RMK A01 T02420140  RH  053%=      5-min Rain = 0
KAHS 150109Z 20007KT 24/14 A2989 RMK A01 T02420140  RH  053%=      5-min Rain = 0
KAHS 150110Z 21006KT 24/14 A2989 RMK A01 T02420140  RH  053%=      5-min Rain = 0
KAHS 150111Z 20006KT 24/14 A299 RMK A01 T02420140  RH  053%=      5-min Rain = 0
KAHS 150112Z 21005KT 24/14 A299 RMK A01 T02420141  RH  053%=      5-min Rain = 0
KAHS 150113Z 21005KT 24/14 A299 RMK A01 T02410140  RH  053%=      5-min Rain = 0
KAHS 150114Z 20005KT 24/14 A299 RMK A01 T02400141  RH  054%=      5-min Rain = 0
KAHS 150115Z 21005KT 24/14 A299 RMK A01 T02400141  RH  054%=      5-min Rain = 0
KAHS 150116Z 21006KT 24/14 A299 RMK A01 T02390141  RH  054%=      5-min Rain = 0
KAHS 150117Z 21005KT 24/14 A299 RMK A01 T02390141  RH  054%=      5-min Rain = 0
KAHS 150118Z 21006KT 24/14 A299 RMK A01 T02390141  RH  054%=      5-min Rain = 0
KAHS 150119Z 21006KT 24/14 A299 RMK A01 T02380142  RH  055%=      5-min Rain = 0
KAHS 150120Z 21005KT 24/14 A299 RMK A01 T02380142  RH  055%=      5-min Rain = 0
KAHS 150121Z 20005KT 24/14 A299 RMK A01 T02380142  RH  055%=      5-min Rain = 0
KAHS 150122Z 19006KT 24/14 A299 RMK A01 T02370142  RH  055%=      5-min Rain = 0
KAHS 150123Z 19006KT 24/14 A299 RMK A01 T02370142  RH  055%=      5-min Rain = 0
KAHS 150124Z 20005KT 24/14 A299 RMK A01 T02360142  RH  055%=      5-min Rain = 0
KAHS 150125Z 19006KT 24/14 A299 RMK A01 T02360142  RH  056%=      5-min Rain = 0
KAHS 150126Z 19006KT 24/14 A299 RMK A01 T02360143  RH  056%=      5-min Rain = 0
KAHS 150127Z 19006KT 24/14 A299 RMK A01 T02360143  RH  056%=      5-min Rain = 0
KAHS 150128Z 19005KT 24/14 A299 RMK A01 T02360142  RH  056%=      5-min Rain = 0
KAHS 150129Z 19006KT 24/14 A299 RMK A01 T02350143  RH  056%=      5-min Rain = 0
KAHS 150130Z 19007KT 24/14 A299 RMK A01 T02350144  RH  056%=      5-min Rain = 0
KAHS 150131Z 19006KT 24/14 A299 RMK A01 T02360144  RH  056%=      5-min Rain = 0
KAHS 150132Z 19006KT 24/15 A299 RMK A01 T02360145  RH  056%=      5-min Rain = 0
KAHS 150133Z 19005KT 24/15 A299 RMK A01 T02360145  RH  057%=      5-min Rain = 0
KAHS 150134Z 19006KT 24/15 A299 RMK A01 T02360145  RH  057%=      5-min Rain = 0
KAHS 150135Z 19007KT 24/15 A299 RMK A01 T02350146  RH  057%=      5-min Rain = 0
KAHS 150136Z 19006KT 24/15 A299 RMK A01 T02350146  RH  058%=      5-min Rain = 0
KAHS 150137Z 19005KT 23/15 A299 RMK A01 T02340147  RH  058%=      5-min Rain = 0
KAHS 150138Z 19006KT 23/15 A299 RMK A01 T02330147  RH  058%=      5-min Rain = 0
KAHS 150139Z 19006KT 23/15 A299 RMK A01 T02340149  RH  059%=      5-min Rain = 0
KAHS 150140Z 19006KT 23/15 A299 RMK A01 T02340149  RH  059%=      5-min Rain = 0
KAHS 150141Z 19006KT 23/15 A2991 RMK A01 T02340150  RH  059%=      5-min Rain = 0
KAHS 150142Z 19006KT 23/15 A2991 RMK A01 T02340150  RH  059%=      5-min Rain = 0
KAHS 150143Z 19006KT 23/15 A2991 RMK A01 T02330150  RH  059%=      5-min Rain = 0
KAHS 150144Z 19006KT 23/15 A2991 RMK A01 T02330150  RH  060%=      5-min Rain = 0
KAHS 150145Z 18006KT 23/15 A2991 RMK A01 T02320151  RH  060%=      5-min Rain = 0
KAHS 150146Z 18006KT 23/15 A2991 RMK A01 T02320151  RH  060%=      5-min Rain = 0
KAHS 150147Z 18006KT 23/15 A2991 RMK A01 T02320151  RH  060%=      5-min Rain = 0
KAHS 150148Z 18007KT 23/15 A2991 RMK A01 T02320152  RH  061%=      5-min Rain = 0
KAHS 150149Z 19007KT 23/15 A299 RMK A01 T02320152  RH  061%=      5-min Rain = 0
KAHS 150150Z 18006KT 23/15 A2991 RMK A01 T02330152  RH  060%=      5-min Rain = 0
KAHS 150151Z 19007KT 23/15 A2991 RMK A01 T02320152  RH  061%=      5-min Rain = 0
KAHS 150152Z 19006KT 23/15 A2991 RMK A01 T02320152  RH  061%=      5-min Rain = 0
KAHS 150153Z 19005KT 23/15 A2991 RMK A01 T02320152  RH  061%=      5-min Rain = 0
KAHS 150154Z 19006KT 23/15 A2991 RMK A01 T02310152  RH  061%=      5-min Rain = 0
KAHS 150155Z 18006KT 23/15 A2991 RMK A01 T02310152  RH  061%=      5-min Rain = 0
KAHS 150156Z 19005KT 23/15 A2991 RMK A01 T02310151  RH  061%=      5-min Rain = 0
KAHS 150157Z 19006KT 23/15 A2991 RMK A01 T02300152  RH  061%=      5-min Rain = 0
KAHS 150158Z 19006KT 23/15 A2991 RMK A01 T02300151  RH  061%=      5-min Rain = 0
KAHS 150159Z 19007KT 23/15 A2991 RMK A01 T02290151  RH  061%=      5-min Rain = 0
KAHS 150200Z 19007KT 23/15 A2991 RMK A01 T02290152  RH  062%=      5-min Rain = 0
KAHS 150201Z 19006KT 23/15 A2991 RMK A01 T02300152  RH  061%=      5-min Rain = 0
KAHS 150202Z 18007KT 23/15 A2991 RMK A01 T02300152  RH  062%=      5-min Rain = 0
KAHS 150203Z 18006KT 23/15 A2991 RMK A01 T02290152  RH  062%=      5-min Rain = 0
KAHS 150204Z 18006KT 23/15 A2991 RMK A01 T02290152  RH  062%=      5-min Rain = 0
KAHS 150205Z 19006KT 23/15 A2991 RMK A01 T02290152  RH  062%=      5-min Rain = 0
KAHS 150206Z 19006KT 23/15 A2991 RMK A01 T02280152  RH  062%=      5-min Rain = 0
KAHS 150207Z 19005KT 23/15 A2991 RMK A01 T02280153  RH  063%=      5-min Rain = 0
KAHS 150208Z 18005KT 23/15 A2991 RMK A01 T02270153  RH  063%=      5-min Rain = 0
KAHS 150209Z 19006KT 23/15 A2991 RMK A01 T02270153  RH  063%=      5-min Rain = 0
KAHS 150210Z 19006KT 23/15 A2991 RMK A01 T02270153  RH  063%=      5-min Rain = 0
KAHS 150211Z 19008KT 23/15 A2991 RMK A01 T02270153  RH  063%=      5-min Rain = 0
KAHS 150212Z 19007KT 23/15 A2991 RMK A01 T02280154  RH  063%=      5-min Rain = 0
KAHS 150213Z 19006KT 23/15 A2991 RMK A01 T02280154  RH  063%=      5-min Rain = 0
KAHS 150214Z 19006KT 23/15 A2991 RMK A01 T02280153  RH  063%=      5-min Rain = 0
KAHS 150215Z 19006KT 23/15 A2991 RMK A01 T02270153  RH  063%=      5-min Rain = 0
KAHS 150216Z 19007KT 23/15 A2991 RMK A01 T02270154  RH  063%=      5-min Rain = 0
KAHS 150217Z 19006KT 23/15 A2991 RMK A01 T02270154  RH  063%=      5-min Rain = 0
KAHS 150218Z 19005KT 23/15 A2991 RMK A01 T02260153  RH  063%=      5-min Rain = 0
KAHS 150219Z 18005KT 23/15 A2991 RMK A01 T02260153  RH  063%=      5-min Rain = 0
KAHS 150220Z 19005KT 23/15 A2991 RMK A01 T02260153  RH  064%=      5-min Rain = 0
KAHS 150221Z 19004KT 23/15 A2991 RMK A01 T02260153  RH  064%=      5-min Rain = 0
KAHS 150222Z 19004KT 23/15 A2991 RMK A01 T02250153  RH  064%=      5-min Rain = 0
KAHS 150223Z 19004KT 22/15 A2991 RMK A01 T02240153  RH  064%=      5-min Rain = 0
KAHS 150224Z 19004KT 22/15 A2991 RMK A01 T02230153  RH  064%=      5-min Rain = 0
KAHS 150225Z 19003KT 22/15 A2991 RMK A01 T02230153  RH  064%=      5-min Rain = 0
KAHS 150226Z 19003KT 22/15 A2991 RMK A01 T02220153  RH  065%=      5-min Rain = 0
KAHS 150227Z 19004KT 22/15 A2991 RMK A01 T02220152  RH  065%=      5-min Rain = 0
KAHS 150228Z 18004KT 22/15 A2991 RMK A01 T02210152  RH  065%=      5-min Rain = 0
KAHS 150229Z 18004KT 22/15 A2991 RMK A01 T02210152  RH  065%=      5-min Rain = 0
KAHS 150230Z 19003KT 22/15 A2991 RMK A01 T02210152  RH  065%=      5-min Rain = 0
KAHS 150231Z 20003KT 22/15 A2991 RMK A01 T02200152  RH  065%=      5-min Rain = 0
KAHS 150232Z 20004KT 22/15 A2991 RMK A01 T02190152  RH  066%=      5-min Rain = 0
KAHS 150233Z 20004KT 22/15 A2991 RMK A01 T02190153  RH  066%=      5-min Rain = 0
KAHS 150234Z 20004KT 22/15 A2991 RMK A01 T02190154  RH  066%=      5-min Rain = 0
KAHS 150235Z 20005KT 22/15 A2991 RMK A01 T02190153  RH  066%=      5-min Rain = 0
KAHS 150236Z 20006KT 22/15 A2991 RMK A01 T02190152  RH  066%=      5-min Rain = 0
KAHS 150237Z 20005KT 22/15 A2991 RMK A01 T02190152  RH  065%=      5-min Rain = 0
KAHS 150238Z 20006KT 22/15 A2991 RMK A01 T02190152  RH  065%=      5-min Rain = 0
KAHS 150239Z 20006KT 22/15 A2991 RMK A01 T02200152  RH  065%=      5-min Rain = 0
KAHS 150240Z 20006KT 22/15 A2991 RMK A01 T02200152  RH  065%=      5-min Rain = 0
KAHS 150241Z 20007KT 22/15 A2991 RMK A01 T02200152  RH  065%=      5-min Rain = 0
KAHS 150242Z 20006KT 22/15 A2991 RMK A01 T02200152  RH  065%=      5-min Rain = 0
KAHS 150243Z 20006KT 22/15 A2991 RMK A01 T02200152  RH  065%=      5-min Rain = 0
KAHS 150244Z 20008KT 22/15 A2991 RMK A01 T02210152  RH  065%=      5-min Rain = 0
KAHS 150245Z 20006KT 22/15 A2991 RMK A01 T02210152  RH  065%=      5-min Rain = 0
KAHS 150246Z 20008KT 22/15 A2991 RMK A01 T02210152  RH  065%=      5-min Rain = 0
KAHS 150247Z 20007KT 22/15 A2991 RMK A01 T02220152  RH  065%=      5-min Rain = 0
KAHS 150248Z 21007KT 22/15 A2991 RMK A01 T02220152  RH  064%=      5-min Rain = 0
KAHS 150249Z 21008KT 22/15 A2991 RMK A01 T02230153  RH  065%=      5-min Rain = 0
KAHS 150250Z 20008KT 22/15 A2991 RMK A01 T02230153  RH  064%=      5-min Rain = 0
KAHS 150251Z 20007KT 22/15 A2991 RMK A01 T02230153  RH  064%=      5-min Rain = 0
KAHS 150252Z 21007KT 22/15 A2991 RMK A01 T02230153  RH  064%=      5-min Rain = 0
KAHS 150253Z 20008KT 22/15 A2991 RMK A01 T02220153  RH  065%=      5-min Rain = 0
KAHS 150254Z 20009KT 22/15 A2991 RMK A01 T02230153  RH  065%=      5-min Rain = 0
KAHS 150255Z 20008KT 22/15 A2991 RMK A01 T02230153  RH  064%=      5-min Rain = 0
KAHS 150256Z 20007KT 22/15 A2991 RMK A01 T02230153  RH  064%=      5-min Rain = 0
KAHS 150257Z 20008KT 22/15 A2991 RMK A01 T02230153  RH  065%=      5-min Rain = 0
KAHS 150258Z 20009KT 22/15 A2991 RMK A01 T02230153  RH  065%=      5-min Rain = 0
KAHS 150259Z 20009KT 22/15 A2991 RMK A01 T02230153  RH  065%=      5-min Rain = 0
KAHS 150300Z 20008KT 22/15 A2991 RMK A01 T02230153  RH  065%=      5-min Rain = 0
KAHS 150301Z 20007KT 22/15 A2991 RMK A01 T02230153  RH  065%=      5-min Rain = 0
KAHS 150302Z 20007KT 22/15 A2991 RMK A01 T02230153  RH  065%=      5-min Rain = 0
KAHS 150303Z 19006KT 22/15 A2991 RMK A01 T02220153  RH  065%=      5-min Rain = 0
KAHS 150304Z 20006KT 22/15 A2992 RMK A01 T02220153  RH  065%=      5-min Rain = 0
KAHS 150305Z 20007KT 22/15 A2992 RMK A01 T02210153  RH  065%=      5-min Rain = 0
KAHS 150306Z 20007KT 22/15 A2992 RMK A01 T02210153  RH  065%=      5-min Rain = 0
KAHS 150307Z 20006KT 22/15 A2992 RMK A01 T02210153  RH  065%=      5-min Rain = 0
KAHS 150308Z 21007KT 22/15 A2992 RMK A01 T02200152  RH  065%=      5-min Rain = 0
KAHS 150309Z 20007KT 22/15 A2992 RMK A01 T02200153  RH  066%=      5-min Rain = 0
KAHS 150310Z 20006KT 22/15 A2992 RMK A01 T02200153  RH  066%=      5-min Rain = 0
KAHS 150311Z 21006KT 22/15 A2992 RMK A01 T02190153  RH  066%=      5-min Rain = 0
KAHS 150312Z 20006KT 22/15 A2992 RMK A01 T02190153  RH  066%=      5-min Rain = 0
KAHS 150313Z 20007KT 22/15 A2992 RMK A01 T02190153  RH  066%=      5-min Rain = 0
KAHS 150314Z 20007KT 22/15 A2992 RMK A01 T02190153  RH  066%=      5-min Rain = 0
KAHS 150315Z 20008KT 22/15 A2992 RMK A01 T02190153  RH  066%=      5-min Rain = 0
KAHS 150316Z 20008KT 22/15 A2992 RMK A01 T02190153  RH  066%=      5-min Rain = 0
KAHS 150317Z 20007KT 22/15 A2992 RMK A01 T02190153  RH  066%=      5-min Rain = 0
KAHS 150318Z 20007KT 22/15 A2992 RMK A01 T02180153  RH  066%=      5-min Rain = 0
KAHS 150319Z 20007KT 22/15 A2992 RMK A01 T02180153  RH  067%=      5-min Rain = 0
KAHS 150320Z 20007KT 22/15 A2992 RMK A01 T02180153  RH  067%=      5-min Rain = 0
KAHS 150321Z 20007KT 22/15 A2992 RMK A01 T02170153  RH  067%=      5-min Rain = 0
KAHS 150322Z 20008KT 22/15 A2992 RMK A01 T02170153  RH  067%=      5-min Rain = 0
KAHS 150323Z 20008KT 22/15 A2992 RMK A01 T02170153  RH  067%=      5-min Rain = 0
KAHS 150324Z 20008KT 22/15 A2992 RMK A01 T02180154  RH  067%=      5-min Rain = 0
KAHS 150325Z 20007KT 22/15 A2993 RMK A01 T02180154  RH  067%=      5-min Rain = 0
KAHS 150326Z 20007KT 22/15 A2993 RMK A01 T02180153  RH  067%=      5-min Rain = 0
KAHS 150327Z 21007KT 22/15 A2993 RMK A01 T02180154  RH  067%=      5-min Rain = 0
KAHS 150328Z 21007KT 22/15 A2993 RMK A01 T02180154  RH  067%=      5-min Rain = 0
KAHS 150329Z 21008KT 22/15 A2993 RMK A01 T02180154  RH  067%=      5-min Rain = 0
KAHS 150330Z 20009KT 22/15 A2993 RMK A01 T02180154  RH  067%=      5-min Rain = 0
KAHS 150331Z 20007KT 22/15 A2993 RMK A01 T02180154  RH  067%=      5-min Rain = 0
KAHS 150332Z 20006KT 22/15 A2993 RMK A01 T02180154  RH  067%=      5-min Rain = 0
KAHS 150333Z 20007KT 22/15 A2992 RMK A01 T02180154  RH  067%=      5-min Rain = 0
KAHS 150334Z 20008KT 22/15 A2992 RMK A01 T02170154  RH  067%=      5-min Rain = 0
KAHS 150335Z 20007KT 22/15 A2992 RMK A01 T02170154  RH  067%=      5-min Rain = 0
KAHS 150336Z 20009KT 22/15 A2992 RMK A01 T02170154  RH  067%=      5-min Rain = 0
KAHS 150337Z 19009KT 22/15 A2992 RMK A01 T02170154  RH  068%=      5-min Rain = 0
KAHS 150338Z 20008KT 22/15 A2992 RMK A01 T02170154  RH  067%=      5-min Rain = 0
KAHS 150339Z 19009KT 22/15 A2992 RMK A01 T02170154  RH  067%=      5-min Rain = 0
KAHS 150340Z 20008KT 22/15 A2992 RMK A01 T02170154  RH  067%=      5-min Rain = 0
KAHS 150341Z 20007KT 22/15 A2992 RMK A01 T02170154  RH  067%=      5-min Rain = 0
KAHS 150342Z 19007KT 22/15 A2992 RMK A01 T02160154  RH  068%=      5-min Rain = 0
KAHS 150343Z 19008KT 22/15 A2992 RMK A01 T02150154  RH  068%=      5-min Rain = 0
KAHS 150344Z 19007KT 22/15 A2992 RMK A01 T02150154  RH  068%=      5-min Rain = 0
KAHS 150345Z 19007KT 22/15 A2992 RMK A01 T02150154  RH  068%=      5-min Rain = 0
KAHS 150346Z 19008KT 22/15 A2992 RMK A01 T02150154  RH  068%=      5-min Rain = 0
KAHS 150347Z 19008KT 22/15 A2993 RMK A01 T02150154  RH  068%=      5-min Rain = 0
KAHS 150348Z 20008KT 22/15 A2993 RMK A01 T02150154  RH  068%=      5-min Rain = 0
KAHS 150349Z 19007KT 22/15 A2993 RMK A01 T02150154  RH  068%=      5-min Rain = 0
KAHS 150350Z 20008KT 22/15 A2993 RMK A01 T02150154  RH  068%=      5-min Rain = 0
KAHS 150351Z 20007KT 21/15 A2993 RMK A01 T02140154  RH  069%=      5-min Rain = 0
KAHS 150352Z 19008KT 21/15 A2993 RMK A01 T02140154  RH  069%=      5-min Rain = 0
KAHS 150353Z 19007KT 21/15 A2993 RMK A01 T02140154  RH  069%=      5-min Rain = 0
KAHS 150354Z 20006KT 21/15 A2993 RMK A01 T02130154  RH  069%=      5-min Rain = 0
KAHS 150355Z 20007KT 21/15 A2993 RMK A01 T02130154  RH  069%=      5-min Rain = 0
KAHS 150356Z 20008KT 21/15 A2993 RMK A01 T02130154  RH  069%=      5-min Rain = 0
KAHS 150357Z 20008KT 21/15 A2993 RMK A01 T02130154  RH  069%=      5-min Rain = 0
KAHS 150358Z 20007KT 21/15 A2993 RMK A01 T02130154  RH  069%=      5-min Rain = 0
KAHS 150359Z 20008KT 21/15 A2993 RMK A01 T02130154  RH  069%=      5-min Rain = 0
KAHS 150400Z 20007KT 21/15 A2993 RMK A01 T02130154  RH  069%=      5-min Rain = 0
KAHS 150401Z 20006KT 21/15 A2993 RMK A01 T02120153  RH  069%=      5-min Rain = 0
KAHS 150402Z 20006KT 21/15 A2993 RMK A01 T02110153  RH  069%=      5-min Rain = 0
KAHS 150403Z 20006KT 21/15 A2993 RMK A01 T02110154  RH  070%=      5-min Rain = 0
KAHS 150404Z 20006KT 21/15 A2993 RMK A01 T02110154  RH  069%=      5-min Rain = 0
KAHS 150405Z 20006KT 21/15 A2993 RMK A01 T02110153  RH  070%=      5-min Rain = 0
KAHS 150406Z 20006KT 21/15 A2993 RMK A01 T02110153  RH  070%=      5-min Rain = 0
KAHS 150407Z 20007KT 21/15 A2993 RMK A01 T02100153  RH  070%=      5-min Rain = 0
KAHS 150408Z 19006KT 21/15 A2993 RMK A01 T02100154  RH  070%=      5-min Rain = 0
KAHS 150409Z 19006KT 21/15 A2993 RMK A01 T02100153  RH  070%=      5-min Rain = 0
KAHS 150410Z 19007KT 21/15 A2993 RMK A01 T02090153  RH  070%=      5-min Rain = 0
KAHS 150411Z 19006KT 21/15 A2993 RMK A01 T02090153  RH  071%=      5-min Rain = 0
KAHS 150412Z 19006KT 21/15 A2993 RMK A01 T02080153  RH  071%=      5-min Rain = 0
KAHS 150413Z 19006KT 21/15 A2993 RMK A01 T02080153  RH  071%=      5-min Rain = 0
KAHS 150414Z 19006KT 21/15 A2993 RMK A01 T02080153  RH  071%=      5-min Rain = 0
KAHS 150415Z 19006KT 21/15 A2993 RMK A01 T02070153  RH  071%=      5-min Rain = 0
KAHS 150416Z 19006KT 21/15 A2993 RMK A01 T02070153  RH  071%=      5-min Rain = 0
KAHS 150417Z 19006KT 21/15 A2993 RMK A01 T02070153  RH  071%=      5-min Rain = 0
KAHS 150418Z 19005KT 21/15 A2993 RMK A01 T02060153  RH  071%=      5-min Rain = 0
KAHS 150419Z 19006KT 21/15 A2993 RMK A01 T02060153  RH  071%=      5-min Rain = 0
KAHS 150420Z 19005KT 21/15 A2993 RMK A01 T02060153  RH  071%=      5-min Rain = 0
KAHS 150421Z 19005KT 21/15 A2993 RMK A01 T02050152  RH  072%=      5-min Rain = 0
KAHS 150422Z 18006KT 21/15 A2993 RMK A01 T02050152  RH  072%=      5-min Rain = 0
KAHS 150423Z 19005KT 21/15 A2993 RMK A01 T02050152  RH  072%=      5-min Rain = 0
KAHS 150424Z 18005KT 20/15 A2993 RMK A01 T02040152  RH  072%=      5-min Rain = 0
KAHS 150425Z 18005KT 20/15 A2993 RMK A01 T02040153  RH  072%=      5-min Rain = 0
KAHS 150426Z 19005KT 20/15 A2993 RMK A01 T02040153  RH  072%=      5-min Rain = 0
KAHS 150427Z 18005KT 20/15 A2993 RMK A01 T02040153  RH  072%=      5-min Rain = 0
KAHS 150428Z 18004KT 20/15 A2993 RMK A01 T02040153  RH  072%=      5-min Rain = 0
KAHS 150429Z 18005KT 20/15 A2993 RMK A01 T02030153  RH  073%=      5-min Rain = 0
KAHS 150430Z 18005KT 20/15 A2993 RMK A01 T02030153  RH  073%=      5-min Rain = 0
KAHS 150431Z 18005KT 20/15 A2993 RMK A01 T02030153  RH  073%=      5-min Rain = 0
KAHS 150432Z 18005KT 20/15 A2993 RMK A01 T02030153  RH  073%=      5-min Rain = 0
KAHS 150433Z 18005KT 20/15 A2993 RMK A01 T02020153  RH  073%=      5-min Rain = 0
KAHS 150434Z 19005KT 20/15 A2993 RMK A01 T02020153  RH  073%=      5-min Rain = 0
KAHS 150435Z 19005KT 20/15 A2993 RMK A01 T02020153  RH  074%=      5-min Rain = 0
KAHS 150436Z 19005KT 20/15 A2993 RMK A01 T02020153  RH  074%=      5-min Rain = 0
KAHS 150437Z 19004KT 20/15 A2993 RMK A01 T02010153  RH  074%=      5-min Rain = 0
KAHS 150438Z 18005KT 20/15 A2993 RMK A01 T02010153  RH  074%=      5-min Rain = 0
KAHS 150439Z 19005KT 20/15 A2993 RMK A01 T02010154  RH  074%=      5-min Rain = 0
KAHS 150440Z 19005KT 20/15 A2993 RMK A01 T02010154  RH  075%=      5-min Rain = 0
KAHS 150441Z 19005KT 20/15 A2993 RMK A01 T02010154  RH  075%=      5-min Rain = 0
KAHS 150442Z 19005KT 20/15 A2993 RMK A01 T02000154  RH  075%=      5-min Rain = 0
KAHS 150443Z 19005KT 20/16 A2993 RMK A01 T02010155  RH  075%=      5-min Rain = 0
KAHS 150444Z 19005KT 20/15 A2993 RMK A01 T02010154  RH  074%=      5-min Rain = 0
KAHS 150445Z 19005KT 20/15 A2993 RMK A01 T02000154  RH  075%=      5-min Rain = 0
KAHS 150446Z 19005KT 20/16 A2993 RMK A01 T02010155  RH  075%=      5-min Rain = 0
KAHS 150447Z 18005KT 20/16 A2993 RMK A01 T02020155  RH  074%=      5-min Rain = 0
KAHS 150448Z 18005KT 20/15 A2993 RMK A01 T02020154  RH  074%=      5-min Rain = 0
KAHS 150449Z 19005KT 20/15 A2993 RMK A01 T02020154  RH  074%=      5-min Rain = 0
KAHS 150450Z 18005KT 20/15 A2993 RMK A01 T02020154  RH  074%=      5-min Rain = 0
KAHS 150451Z 18005KT 20/15 A2993 RMK A01 T02020154  RH  074%=      5-min Rain = 0
KAHS 150452Z 18005KT 20/15 A2993 RMK A01 T02010154  RH  074%=      5-min Rain = 0
KAHS 150453Z 18005KT 20/15 A2993 RMK A01 T02010154  RH  074%=      5-min Rain = 0
KAHS 150454Z 18005KT 20/15 A2993 RMK A01 T02010154  RH  074%=      5-min Rain = 0
KAHS 150455Z 19006KT 20/15 A2993 RMK A01 T02020154  RH  074%=      5-min Rain = 0
KAHS 150456Z 18005KT 20/16 A2993 RMK A01 T02040155  RH  074%=      5-min Rain = 0
KAHS 150457Z 18004KT 20/15 A2993 RMK A01 T02040154  RH  073%=      5-min Rain = 0
KAHS 150458Z 17004KT 20/15 A2993 RMK A01 T02030154  RH  073%=      5-min Rain = 0
KAHS 150459Z 18005KT 20/15 A2993 RMK A01 T02030154  RH  074%=      5-min Rain = 0

Page generated in 0.0874 seconds.